Time,TemperatureF,DewpointF,PressureIn,WindDirection,WindDirectionDegrees,WindSpeedMPH,WindSpeedGustMPH,Humidity,HourlyPrecipIn,Conditions,Clouds,dailyrainin,SolarRadiationWatts/m^2,SoftwareType,DateUTC
2013-09-26 00:00:00,60.2,55.0,29.84,ESE,111,0.0,0.0,83,0.00,,CLR,0.00,0.00,VWS V14.00,2013-09-26 05:00:00,
2013-09-26 00:02:00,60.2,55.0,29.84,ESE,111,0.0,1.0,83,0.00,,CLR,0.00,0.00,VWS V14.00,2013-09-26 05:02:00,
2013-09-26 00:03:00,60.1,54.9,29.84,ESE,111,0.0,0.0,83,0.00,,CLR,0.00,0.00,VWS V14.00,2013-09-26 05:03:00,
2013-09-26 00:05:00,60.1,54.9,29.84,ESE,111,0.0,0.0,83,0.00,,CLR,0.00,0.00,VWS V14.00,2013-09-26 05:05:00,
2013-09-26 00:07:00,60.0,54.8,29.84,ESE,111,0.0,4.0,83,0.00,,CLR,0.00,0.00,VWS V14.00,2013-09-26 05:07:00,
2013-09-26 00:09:00,60.0,54.8,29.84,ESE,111,0.0,0.0,83,0.00,,CLR,0.00,0.00,VWS V14.00,2013-09-26 05:09:00,
2013-09-26 00:10:00,60.0,54.8,29.84,ESE,111,0.0,1.0,83,0.00,,CLR,0.00,0.00,VWS V14.00,2013-09-26 05:10:00,
2013-09-26 00:11:00,60.0,54.8,29.84,ESE,111,0.0,1.0,83,0.00,,CLR,0.00,0.00,VWS V14.00,2013-09-26 05:11:00,
2013-09-26 00:13:00,60.0,54.8,29.84,ESE,111,0.0,1.0,83,0.00,,CLR,0.00,0.00,VWS V14.00,2013-09-26 05:13:00,
2013-09-26 00:14:00,60.0,54.8,29.84,ESE,111,0.0,0.0,83,0.00,,CLR,0.00,0.00,VWS V14.00,2013-09-26 05:14:00,
2013-09-26 00:15:00,60.0,54.8,29.84,ESE,111,0.0,1.0,83,0.00,,CLR,0.00,0.00,VWS V14.00,2013-09-26 05:15:00,
2013-09-26 00:16:00,59.9,54.7,29.84,ESE,111,0.0,0.0,83,0.00,,CLR,0.00,0.00,VWS V14.00,2013-09-26 05:16:00,
2013-09-26 00:18:00,60.0,54.8,29.84,ESE,111,0.0,1.0,83,0.00,,CLR,0.00,0.00,VWS V14.00,2013-09-26 05:18:00,
2013-09-26 00:19:00,60.0,54.8,29.84,ESE,111,0.0,0.0,83,0.00,,CLR,0.00,0.00,VWS V14.00,2013-09-26 05:19:00,
2013-09-26 00:20:00,60.0,54.8,29.84,ESE,111,0.0,1.0,83,0.00,,CLR,0.00,0.00,VWS V14.00,2013-09-26 05:20:00,
2013-09-26 00:21:00,60.1,54.9,29.84,ESE,111,0.0,0.0,83,0.00,,CLR,0.00,0.00,VWS V14.00,2013-09-26 05:21:00,
2013-09-26 00:24:00,60.0,54.8,29.84,ESE,111,0.0,0.0,83,0.00,,CLR,0.00,0.00,VWS V14.00,2013-09-26 05:24:00,
2013-09-26 00:25:00,60.1,54.9,29.84,ESE,111,0.0,0.0,83,0.00,,CLR,0.00,0.00,VWS V14.00,2013-09-26 05:25:00,
2013-09-26 00:26:00,60.0,54.8,29.84,ESE,111,1.0,2.0,83,0.00,,CLR,0.00,0.00,VWS V14.00,2013-09-26 05:26:00,
2013-09-26 00:29:00,60.0,54.8,29.84,ESE,111,0.0,0.0,83,0.00,,CLR,0.00,0.00,VWS V14.00,2013-09-26 05:29:00,
2013-09-26 00:30:00,60.0,54.8,29.84,ESE,111,0.0,2.0,83,0.00,,CLR,0.00,0.00,VWS V14.00,2013-09-26 05:30:00,
2013-09-26 00:31:00,59.9,54.7,29.84,ESE,111,0.0,0.0,83,0.00,,CLR,0.00,0.00,VWS V14.00,2013-09-26 05:31:00,
2013-09-26 00:34:00,59.9,54.7,29.84,ESE,111,0.0,1.0,83,0.00,,CLR,0.00,0.00,VWS V14.00,2013-09-26 05:34:00,
2013-09-26 00:35:00,59.9,54.7,29.84,ESE,111,0.0,1.0,83,0.00,,CLR,0.00,0.00,VWS V14.00,2013-09-26 05:35:00,
2013-09-26 00:36:00,60.0,54.8,29.84,ESE,111,0.0,1.0,83,0.00,,CLR,0.00,0.00,VWS V14.00,2013-09-26 05:36:00,
2013-09-26 00:37:00,60.0,54.8,29.84,ESE,111,0.0,1.0,83,0.00,,CLR,0.00,0.00,VWS V14.00,2013-09-26 05:37:00,
2013-09-26 00:39:00,60.1,54.9,29.84,ESE,111,0.0,0.0,83,0.00,,CLR,0.00,0.00,VWS V14.00,2013-09-26 05:39:00,
2013-09-26 00:40:00,60.1,54.9,29.84,ESE,111,0.0,0.0,83,0.00,,CLR,0.00,0.00,VWS V14.00,2013-09-26 05:40:00,
2013-09-26 00:41:00,60.1,54.9,29.84,ESE,111,0.0,0.0,83,0.00,,CLR,0.00,0.00,VWS V14.00,2013-09-26 05:41:00,
2013-09-26 00:42:00,60.2,55.0,29.84,ESE,111,0.0,1.0,83,0.00,,CLR,0.00,0.00,VWS V14.00,2013-09-26 05:42:00,
2013-09-26 00:44:00,60.2,55.0,29.84,ESE,111,0.0,0.0,83,0.00,,CLR,0.00,0.00,VWS V14.00,2013-09-26 05:44:00,
2013-09-26 00:45:00,60.2,55.0,29.84,ESE,111,0.0,1.0,83,0.00,,CLR,0.00,0.00,VWS V14.00,2013-09-26 05:45:00,
2013-09-26 00:46:00,60.3,55.1,29.84,ESE,111,0.0,1.0,83,0.00,,CLR,0.00,0.00,VWS V14.00,2013-09-26 05:46:00,
2013-09-26 00:47:00,60.3,55.1,29.84,ESE,111,0.0,1.0,83,0.00,,CLR,0.00,0.00,VWS V14.00,2013-09-26 05:47:00,
2013-09-26 00:49:00,60.3,55.1,29.84,ESE,111,0.0,0.0,83,0.00,,CLR,0.00,0.00,VWS V14.00,2013-09-26 05:49:00,
2013-09-26 00:50:00,60.2,55.0,29.84,ESE,111,0.0,0.0,83,0.00,,CLR,0.00,0.00,VWS V14.00,2013-09-26 05:50:00,
2013-09-26 00:52:00,60.2,55.0,29.84,ESE,111,0.0,0.0,83,0.00,,CLR,0.00,0.00,VWS V14.00,2013-09-26 05:52:00,
2013-09-26 00:53:00,60.2,55.0,29.84,ESE,111,0.0,0.0,83,0.00,,CLR,0.00,0.00,VWS V14.00,2013-09-26 05:53:00,
2013-09-26 00:55:00,60.2,55.0,29.85,ESE,111,0.0,0.0,83,0.00,,CLR,0.00,0.00,VWS V14.00,2013-09-26 05:55:00,
2013-09-26 00:57:00,60.1,54.9,29.85,ESE,111,0.0,0.0,83,0.00,,CLR,0.00,0.00,VWS V14.00,2013-09-26 05:57:00,
2013-09-26 00:58:00,60.1,54.9,29.85,ESE,111,0.0,0.0,83,0.00,,CLR,0.00,0.00,VWS V14.00,2013-09-26 05:58:00,
2013-09-26 01:00:00,60.0,54.8,29.85,ESE,111,0.0,0.0,83,0.00,,CLR,0.00,0.00,VWS V14.00,2013-09-26 06:00:00,
2013-09-26 01:02:00,59.9,54.7,29.85,ESE,111,0.0,0.0,83,0.00,,CLR,0.00,0.00,VWS V14.00,2013-09-26 06:02:00,
2013-09-26 01:03:00,59.9,54.7,29.85,ESE,111,0.0,0.0,83,0.00,,CLR,0.00,0.00,VWS V14.00,2013-09-26 06:03:00,
2013-09-26 01:05:00,59.8,54.6,29.85,ESE,111,0.0,0.0,83,0.00,,CLR,0.00,0.00,VWS V14.00,2013-09-26 06:05:00,
2013-09-26 01:07:00,59.7,54.5,29.85,ESE,111,0.0,0.0,83,0.00,,CLR,0.00,0.00,VWS V14.00,2013-09-26 06:07:00,
2013-09-26 01:09:00,59.7,54.5,29.85,ESE,111,0.0,0.0,83,0.00,,CLR,0.00,0.00,VWS V14.00,2013-09-26 06:09:00,
2013-09-26 01:10:00,59.6,54.4,29.85,ESE,111,0.0,0.0,83,0.00,,CLR,0.00,0.00,VWS V14.00,2013-09-26 06:10:00,
2013-09-26 01:13:00,59.6,54.4,29.85,ESE,111,1.0,2.0,83,0.00,,CLR,0.00,0.00,VWS V14.00,2013-09-26 06:13:00,
2013-09-26 01:14:00,59.5,54.3,29.85,ESE,111,0.0,1.0,83,0.00,,CLR,0.00,0.00,VWS V14.00,2013-09-26 06:14:00,
2013-09-26 01:15:00,59.5,54.3,29.85,ESE,111,0.0,1.0,83,0.00,,CLR,0.00,0.00,VWS V14.00,2013-09-26 06:15:00,
2013-09-26 01:16:00,59.5,54.3,29.85,ESE,111,0.0,1.0,83,0.00,,CLR,0.00,0.00,VWS V14.00,2013-09-26 06:16:00,
2013-09-26 01:18:00,59.4,54.2,29.85,ESE,111,0.0,1.0,83,0.00,,CLR,0.00,0.00,VWS V14.00,2013-09-26 06:18:00,
2013-09-26 01:19:00,59.4,54.2,29.85,ESE,111,0.0,0.0,83,0.00,,CLR,0.00,0.00,VWS V14.00,2013-09-26 06:19:00,
2013-09-26 01:20:00,59.4,54.2,29.85,ESE,111,0.0,0.0,83,0.00,,CLR,0.00,0.00,VWS V14.00,2013-09-26 06:20:00,
2013-09-26 01:21:00,59.4,54.2,29.85,ESE,111,0.0,0.0,83,0.00,,CLR,0.00,0.00,VWS V14.00,2013-09-26 06:21:00,
2013-09-26 01:23:00,59.3,54.2,29.85,ESE,111,0.0,1.0,83,0.00,,CLR,0.00,0.00,VWS V14.00,2013-09-26 06:23:00,
2013-09-26 01:24:00,59.2,54.0,29.85,ESE,111,0.0,1.0,83,0.00,,CLR,0.00,0.00,VWS V14.00,2013-09-26 06:24:00,
2013-09-26 01:25:00,59.2,54.0,29.85,ESE,111,0.0,2.0,83,0.00,,CLR,0.00,0.00,VWS V14.00,2013-09-26 06:25:00,
2013-09-26 01:26:00,59.2,54.0,29.85,ESE,111,0.0,2.0,83,0.00,,CLR,0.00,0.00,VWS V14.00,2013-09-26 06:26:00,
2013-09-26 01:28:00,59.0,53.8,29.86,ESE,111,0.0,0.0,83,0.00,,CLR,0.00,0.00,VWS V14.00,2013-09-26 06:28:00,
2013-09-26 01:30:00,59.0,54.2,29.86,ESE,111,0.0,0.0,84,0.00,,CLR,0.00,0.00,VWS V14.00,2013-09-26 06:30:00,
2013-09-26 01:31:00,58.9,54.1,29.85,ESE,111,0.0,0.0,84,0.00,,CLR,0.00,0.00,VWS V14.00,2013-09-26 06:31:00,
2013-09-26 01:33:00,58.8,53.7,29.85,ESE,111,0.0,0.0,83,0.00,,CLR,0.00,0.00,VWS V14.00,2013-09-26 06:33:00,
2013-09-26 01:35:00,58.8,53.7,29.85,ESE,111,0.0,1.0,83,0.00,,CLR,0.00,0.00,VWS V14.00,2013-09-26 06:35:00,
2013-09-26 01:36:00,58.7,53.6,29.85,ESE,111,0.0,1.0,83,0.00,,CLR,0.00,0.00,VWS V14.00,2013-09-26 06:36:00,
2013-09-26 01:39:00,58.6,53.5,29.86,ESE,111,0.0,0.0,83,0.00,,CLR,0.00,0.00,VWS V14.00,2013-09-26 06:39:00,
2013-09-26 01:40:00,58.6,53.5,29.86,ESE,111,0.0,1.0,83,0.00,,CLR,0.00,0.00,VWS V14.00,2013-09-26 06:40:00,
2013-09-26 01:41:00,58.6,53.5,29.86,ESE,111,0.0,1.0,83,0.00,,CLR,0.00,0.00,VWS V14.00,2013-09-26 06:41:00,
2013-09-26 01:44:00,58.5,53.7,29.86,ESE,111,0.0,0.0,84,0.00,,CLR,0.00,0.00,VWS V14.00,2013-09-26 06:44:00,
2013-09-26 01:45:00,58.5,53.4,29.86,ESE,111,0.0,1.0,83,0.00,,CLR,0.00,0.00,VWS V14.00,2013-09-26 06:45:00,
2013-09-26 01:46:00,58.5,53.7,29.86,ESE,111,0.0,0.0,84,0.00,,CLR,0.00,0.00,VWS V14.00,2013-09-26 06:46:00,
2013-09-26 01:47:00,58.4,53.6,29.86,ESE,111,0.0,0.0,84,0.00,,CLR,0.00,0.00,VWS V14.00,2013-09-26 06:47:00,
2013-09-26 01:49:00,58.4,53.6,29.86,ESE,111,0.0,0.0,84,0.00,,CLR,0.00,0.00,VWS V14.00,2013-09-26 06:49:00,
2013-09-26 01:50:00,58.4,53.6,29.86,ESE,111,0.0,0.0,84,0.00,,CLR,0.00,0.00,VWS V14.00,2013-09-26 06:50:00,
2013-09-26 01:51:00,58.4,53.6,29.86,ESE,111,0.0,1.0,84,0.00,,CLR,0.00,0.00,VWS V14.00,2013-09-26 06:51:00,
2013-09-26 01:52:00,58.3,53.5,29.86,ESE,111,0.0,1.0,84,0.00,,CLR,0.00,0.00,VWS V14.00,2013-09-26 06:52:00,
2013-09-26 01:54:00,58.2,53.4,29.86,ESE,111,0.0,0.0,84,0.00,,CLR,0.00,0.00,VWS V14.00,2013-09-26 06:54:00,
2013-09-26 01:55:00,58.3,53.5,29.86,ESE,111,0.0,1.0,84,0.00,,CLR,0.00,0.00,VWS V14.00,2013-09-26 06:55:00,
2013-09-26 01:57:00,58.2,53.4,29.86,ESE,111,0.0,0.0,84,0.00,,CLR,0.00,0.00,VWS V14.00,2013-09-26 06:57:00,
2013-09-26 01:58:00,58.2,53.4,29.86,ESE,111,0.0,1.0,84,0.00,,CLR,0.00,0.00,VWS V14.00,2013-09-26 06:58:00,
2013-09-26 02:00:00,58.1,53.3,29.86,ESE,111,0.0,0.0,84,0.00,,CLR,0.00,0.00,VWS V14.00,2013-09-26 07:00:00,
2013-09-26 02:02:00,58.0,52.9,29.86,ESE,111,0.0,0.0,83,0.00,,CLR,0.00,0.00,VWS V14.00,2013-09-26 07:02:00,
2013-09-26 02:03:00,58.0,52.9,29.86,ESE,111,0.0,0.0,83,0.00,,CLR,0.00,0.00,VWS V14.00,2013-09-26 07:03:00,
2013-09-26 02:05:00,58.0,52.9,29.86,ESE,111,0.0,1.0,83,0.00,,CLR,0.00,0.00,VWS V14.00,2013-09-26 07:05:00,
2013-09-26 02:07:00,57.9,52.8,29.86,ESE,111,0.0,1.0,83,0.00,,CLR,0.00,0.00,VWS V14.00,2013-09-26 07:07:00,
2013-09-26 02:08:00,57.9,52.8,29.86,ESE,111,0.0,0.0,83,0.00,,CLR,0.00,0.00,VWS V14.00,2013-09-26 07:08:00,
2013-09-26 02:09:00,57.9,52.8,29.86,ESE,111,0.0,0.0,83,0.00,,CLR,0.00,0.00,VWS V14.00,2013-09-26 07:09:00,
2013-09-26 02:10:00,57.8,52.7,29.86,ESE,111,0.0,0.0,83,0.00,,CLR,0.00,0.00,VWS V14.00,2013-09-26 07:10:00,
2013-09-26 02:12:00,57.8,52.7,29.86,ESE,111,0.0,4.0,83,0.00,,CLR,0.00,0.00,VWS V14.00,2013-09-26 07:12:00,
2013-09-26 02:14:00,57.9,52.8,29.86,ESE,111,0.0,0.0,83,0.00,,CLR,0.00,0.00,VWS V14.00,2013-09-26 07:14:00,
2013-09-26 02:15:00,57.9,52.8,29.86,ESE,111,0.0,4.0,83,0.00,,CLR,0.00,0.00,VWS V14.00,2013-09-26 07:15:00,
2013-09-26 02:16:00,58.0,52.9,29.86,ESE,111,0.0,1.0,83,0.00,,CLR,0.00,0.00,VWS V14.00,2013-09-26 07:16:00,
2013-09-26 02:17:00,58.0,52.9,29.86,ESE,111,0.0,1.0,83,0.00,,CLR,0.00,0.00,VWS V14.00,2013-09-26 07:17:00,
2013-09-26 02:18:00,58.0,52.9,29.86,ESE,111,0.0,1.0,83,0.00,,CLR,0.00,0.00,VWS V14.00,2013-09-26 07:18:00,
2013-09-26 02:19:00,58.0,52.9,29.86,ESE,111,0.0,0.0,83,0.00,,CLR,0.00,0.00,VWS V14.00,2013-09-26 07:19:00,
2013-09-26 02:20:00,58.0,52.9,29.86,ESE,111,0.0,1.0,83,0.00,,CLR,0.00,0.00,VWS V14.00,2013-09-26 07:20:00,
2013-09-26 02:21:00,58.0,52.9,29.86,ESE,111,0.0,0.0,83,0.00,,CLR,0.00,0.00,VWS V14.00,2013-09-26 07:21:00,
2013-09-26 02:22:00,58.0,52.9,29.86,ESE,111,0.0,0.0,83,0.00,,CLR,0.00,0.00,VWS V14.00,2013-09-26 07:22:00,
2013-09-26 02:23:00,58.0,52.9,29.86,ESE,111,0.0,0.0,83,0.00,,CLR,0.00,0.00,VWS V14.00,2013-09-26 07:23:00,
2013-09-26 02:24:00,58.0,52.9,29.86,ESE,111,0.0,0.0,83,0.00,,CLR,0.00,0.00,VWS V14.00,2013-09-26 07:24:00,
2013-09-26 02:25:00,58.0,52.9,29.86,ESE,111,0.0,0.0,83,0.00,,CLR,0.00,0.00,VWS V14.00,2013-09-26 07:25:00,
2013-09-26 02:27:00,57.9,53.1,29.86,ESE,111,0.0,0.0,84,0.00,,CLR,0.00,0.00,VWS V14.00,2013-09-26 07:27:00,
2013-09-26 02:28:00,57.9,52.8,29.86,ESE,111,0.0,0.0,83,0.00,,CLR,0.00,0.00,VWS V14.00,2013-09-26 07:28:00,
2013-09-26 02:29:00,57.8,53.0,29.86,ESE,111,0.0,0.0,84,0.00,,CLR,0.00,0.00,VWS V14.00,2013-09-26 07:29:00,
2013-09-26 02:30:00,57.8,53.0,29.86,ESE,111,0.0,0.0,84,0.00,,CLR,0.00,0.00,VWS V14.00,2013-09-26 07:30:00,
2013-09-26 02:32:00,57.7,52.9,29.86,ESE,111,0.0,0.0,84,0.00,,CLR,0.00,0.00,VWS V14.00,2013-09-26 07:32:00,
2013-09-26 02:33:00,57.7,52.9,29.86,ESE,111,0.0,0.0,84,0.00,,CLR,0.00,0.00,VWS V14.00,2013-09-26 07:33:00,
2013-09-26 02:34:00,57.7,52.9,29.86,ESE,111,0.0,0.0,84,0.00,,CLR,0.00,0.00,VWS V14.00,2013-09-26 07:34:00,
2013-09-26 02:35:00,57.7,52.9,29.86,ESE,111,0.0,0.0,84,0.00,,CLR,0.00,0.00,VWS V14.00,2013-09-26 07:35:00,
2013-09-26 02:37:00,57.6,52.8,29.86,ESE,111,0.0,1.0,84,0.00,,CLR,0.00,0.00,VWS V14.00,2013-09-26 07:37:00,
2013-09-26 02:38:00,57.6,52.8,29.86,ESE,111,0.0,1.0,84,0.00,,CLR,0.00,0.00,VWS V14.00,2013-09-26 07:38:00,
2013-09-26 02:40:00,57.6,52.8,29.86,ESE,111,0.0,0.0,84,0.00,,CLR,0.00,0.00,VWS V14.00,2013-09-26 07:40:00,
2013-09-26 02:43:00,57.6,52.5,29.86,ESE,111,0.0,0.0,83,0.00,,CLR,0.00,0.00,VWS V14.00,2013-09-26 07:43:00,
2013-09-26 02:45:00,57.6,52.8,29.86,ESE,111,0.0,0.0,84,0.00,,CLR,0.00,0.00,VWS V14.00,2013-09-26 07:45:00,
2013-09-26 02:48:00,57.6,52.8,29.86,ESE,111,0.0,0.0,84,0.00,,CLR,0.00,0.00,VWS V14.00,2013-09-26 07:48:00,
2013-09-26 02:50:00,57.5,52.7,29.86,ESE,111,0.0,0.0,84,0.00,,CLR,0.00,0.00,VWS V14.00,2013-09-26 07:50:00,
2013-09-26 02:51:00,57.5,52.7,29.86,ESE,111,0.0,0.0,84,0.00,,CLR,0.00,0.00,VWS V14.00,2013-09-26 07:51:00,
2013-09-26 02:53:00,57.4,52.3,29.86,ESE,111,0.0,0.0,83,0.00,,CLR,0.00,0.00,VWS V14.00,2013-09-26 07:53:00,
2013-09-26 02:55:00,57.4,52.3,29.86,ESE,111,0.0,0.0,83,0.00,,CLR,0.00,0.00,VWS V14.00,2013-09-26 07:55:00,
2013-09-26 02:56:00,57.3,52.2,29.86,ESE,111,0.0,0.0,83,0.00,,CLR,0.00,0.00,VWS V14.00,2013-09-26 07:56:00,
2013-09-26 02:58:00,57.3,52.2,29.86,ESE,111,0.0,0.0,83,0.00,,CLR,0.00,0.00,VWS V14.00,2013-09-26 07:58:00,
2013-09-26 03:00:00,57.3,52.2,29.86,ESE,111,0.0,0.0,83,0.00,,CLR,0.00,0.00,VWS V14.00,2013-09-26 08:00:00,
2013-09-26 03:01:00,57.3,52.2,29.86,ESE,111,0.0,0.0,83,0.00,,CLR,0.00,0.00,VWS V14.00,2013-09-26 08:01:00,
2013-09-26 03:02:00,57.2,52.1,29.86,ESE,111,0.0,0.0,83,0.00,,CLR,0.00,0.00,VWS V14.00,2013-09-26 08:02:00,
2013-09-26 03:03:00,57.2,52.1,29.86,ESE,111,0.0,0.0,83,0.00,,CLR,0.00,0.00,VWS V14.00,2013-09-26 08:03:00,
2013-09-26 03:04:00,57.2,52.1,29.86,ESE,111,0.0,0.0,83,0.00,,CLR,0.00,0.00,VWS V14.00,2013-09-26 08:04:00,
2013-09-26 03:05:00,57.2,52.1,29.86,ESE,111,0.0,0.0,83,0.00,,CLR,0.00,0.00,VWS V14.00,2013-09-26 08:05:00,
2013-09-26 03:06:00,57.2,52.4,29.86,ESE,111,0.0,0.0,84,0.00,,CLR,0.00,0.00,VWS V14.00,2013-09-26 08:06:00,
2013-09-26 03:07:00,57.1,52.3,29.86,ESE,111,0.0,0.0,84,0.00,,CLR,0.00,0.00,VWS V14.00,2013-09-26 08:07:00,
2013-09-26 03:08:00,57.1,52.3,29.86,ESE,111,0.0,0.0,84,0.00,,CLR,0.00,0.00,VWS V14.00,2013-09-26 08:08:00,
2013-09-26 03:09:00,57.1,52.3,29.86,ESE,111,0.0,0.0,84,0.00,,CLR,0.00,0.00,VWS V14.00,2013-09-26 08:09:00,
2013-09-26 03:10:00,57.1,52.3,29.86,ESE,111,0.0,0.0,84,0.00,,CLR,0.00,0.00,VWS V14.00,2013-09-26 08:10:00,
2013-09-26 03:11:00,57.0,52.2,29.86,ESE,111,0.0,0.0,84,0.00,,CLR,0.00,0.00,VWS V14.00,2013-09-26 08:11:00,
2013-09-26 03:12:00,57.0,52.2,29.87,ESE,111,0.0,0.0,84,0.00,,CLR,0.00,0.00,VWS V14.00,2013-09-26 08:12:00,
2013-09-26 03:14:00,56.9,52.1,29.87,ESE,111,0.0,0.0,84,0.00,,CLR,0.00,0.00,VWS V14.00,2013-09-26 08:14:00,
2013-09-26 03:15:00,57.0,52.2,29.87,ESE,111,0.0,0.0,84,0.00,,CLR,0.00,0.00,VWS V14.00,2013-09-26 08:15:00,
2013-09-26 03:17:00,56.9,52.1,29.87,ESE,111,0.0,0.0,84,0.00,,CLR,0.00,0.00,VWS V14.00,2013-09-26 08:17:00,
2013-09-26 03:19:00,56.9,52.1,29.86,ESE,111,0.0,0.0,84,0.00,,CLR,0.00,0.00,VWS V14.00,2013-09-26 08:19:00,
2013-09-26 03:20:00,56.9,52.1,29.87,ESE,111,0.0,0.0,84,0.00,,CLR,0.00,0.00,VWS V14.00,2013-09-26 08:20:00,
2013-09-26 03:22:00,56.8,52.0,29.87,ESE,111,0.0,0.0,84,0.00,,CLR,0.00,0.00,VWS V14.00,2013-09-26 08:22:00,
2013-09-26 03:24:00,56.8,52.0,29.87,ESE,111,0.0,0.0,84,0.00,,CLR,0.00,0.00,VWS V14.00,2013-09-26 08:24:00,
2013-09-26 03:25:00,56.8,52.0,29.86,ESE,111,0.0,0.0,84,0.00,,CLR,0.00,0.00,VWS V14.00,2013-09-26 08:25:00,
2013-09-26 03:27:00,56.7,51.9,29.86,ESE,111,0.0,0.0,84,0.00,,CLR,0.00,0.00,VWS V14.00,2013-09-26 08:27:00,
2013-09-26 03:29:00,56.7,51.9,29.86,ESE,111,0.0,0.0,84,0.00,,CLR,0.00,0.00,VWS V14.00,2013-09-26 08:29:00,
2013-09-26 03:30:00,56.7,51.9,29.86,ESE,111,0.0,1.0,84,0.00,,CLR,0.00,0.00,VWS V14.00,2013-09-26 08:30:00,
2013-09-26 03:31:00,56.6,51.5,29.86,ESE,112,0.0,1.0,83,0.00,,CLR,0.00,0.00,VWS V14.00,2013-09-26 08:31:00,
2013-09-26 03:33:00,56.6,51.5,29.86,ESE,111,0.0,1.0,83,0.00,,CLR,0.00,0.00,VWS V14.00,2013-09-26 08:33:00,
2013-09-26 03:34:00,56.6,51.5,29.86,ESE,111,0.0,0.0,83,0.00,,CLR,0.00,0.00,VWS V14.00,2013-09-26 08:34:00,
2013-09-26 03:35:00,56.6,51.5,29.86,ESE,111,0.0,0.0,83,0.00,,CLR,0.00,0.00,VWS V14.00,2013-09-26 08:35:00,
2013-09-26 03:36:00,56.6,51.5,29.86,ESE,111,0.0,0.0,83,0.00,,CLR,0.00,0.00,VWS V14.00,2013-09-26 08:36:00,
2013-09-26 03:38:00,56.6,51.5,29.86,ESE,111,0.0,1.0,83,0.00,,CLR,0.00,0.00,VWS V14.00,2013-09-26 08:38:00,
2013-09-26 03:39:00,56.5,51.4,29.86,ESE,111,0.0,1.0,83,0.00,,CLR,0.00,0.00,VWS V14.00,2013-09-26 08:39:00,
2013-09-26 03:40:00,56.5,51.4,29.86,ESE,111,0.0,1.0,83,0.00,,CLR,0.00,0.00,VWS V14.00,2013-09-26 08:40:00,
2013-09-26 03:42:00,56.5,51.4,29.86,ESE,111,0.0,1.0,83,0.00,,CLR,0.00,0.00,VWS V14.00,2013-09-26 08:42:00,
2013-09-26 03:43:00,56.5,51.4,29.86,ESE,111,1.0,1.0,83,0.00,,CLR,0.00,0.00,VWS V14.00,2013-09-26 08:43:00,
2013-09-26 03:45:00,56.5,51.4,29.86,ESE,111,0.0,1.0,83,0.00,,CLR,0.00,0.00,VWS V14.00,2013-09-26 08:45:00,
2013-09-26 03:47:00,56.4,51.3,29.86,ESE,111,0.0,1.0,83,0.00,,CLR,0.00,0.00,VWS V14.00,2013-09-26 08:47:00,
2013-09-26 03:48:00,56.4,51.3,29.86,ESE,111,0.0,0.0,83,0.00,,CLR,0.00,0.00,VWS V14.00,2013-09-26 08:48:00,
2013-09-26 03:50:00,56.4,51.3,29.86,ESE,111,0.0,0.0,83,0.00,,CLR,0.00,0.00,VWS V14.00,2013-09-26 08:50:00,
2013-09-26 03:53:00,56.3,51.5,29.86,ESE,111,0.0,0.0,84,0.00,,CLR,0.00,0.00,VWS V14.00,2013-09-26 08:53:00,
2013-09-26 03:55:00,56.3,51.2,29.86,ESE,111,0.0,0.0,83,0.00,,CLR,0.00,0.00,VWS V14.00,2013-09-26 08:55:00,
2013-09-26 03:58:00,56.3,51.5,29.86,ESE,111,0.0,0.0,84,0.00,,CLR,0.00,0.00,VWS V14.00,2013-09-26 08:58:00,
2013-09-26 04:00:00,56.4,51.3,29.86,ESE,111,0.0,0.0,83,0.00,,CLR,0.00,0.00,VWS V14.00,2013-09-26 09:00:00,
2013-09-26 04:03:00,56.6,51.5,29.86,ESE,111,0.0,0.0,83,0.00,,CLR,0.00,0.00,VWS V14.00,2013-09-26 09:03:00,
2013-09-26 04:04:00,56.7,51.6,29.86,ESE,111,0.0,0.0,83,0.00,,CLR,0.00,0.00,VWS V14.00,2013-09-26 09:04:00,
2013-09-26 04:05:00,56.8,51.7,29.86,ESE,111,0.0,0.0,83,0.00,,CLR,0.00,0.00,VWS V14.00,2013-09-26 09:05:00,
2013-09-26 04:06:00,56.8,51.7,29.86,ESE,111,0.0,1.0,83,0.00,,CLR,0.00,0.00,VWS V14.00,2013-09-26 09:06:00,
2013-09-26 04:08:00,56.9,51.8,29.86,ESE,111,0.0,1.0,83,0.00,,CLR,0.00,0.00,VWS V14.00,2013-09-26 09:08:00,
2013-09-26 04:09:00,56.9,51.8,29.86,ESE,111,0.0,1.0,83,0.00,,CLR,0.00,0.00,VWS V14.00,2013-09-26 09:09:00,
2013-09-26 04:10:00,57.0,51.9,29.86,ESE,111,0.0,1.0,83,0.00,,CLR,0.00,0.00,VWS V14.00,2013-09-26 09:10:00,
2013-09-26 04:11:00,57.0,51.9,29.86,ESE,111,0.0,1.0,83,0.00,,CLR,0.00,0.00,VWS V14.00,2013-09-26 09:11:00,
2013-09-26 04:14:00,57.1,52.0,29.86,ESE,113,0.0,0.0,83,0.00,,CLR,0.00,0.00,VWS V14.00,2013-09-26 09:14:00,
2013-09-26 04:15:00,57.1,52.0,29.86,ESE,113,0.0,0.0,83,0.00,,CLR,0.00,0.00,VWS V14.00,2013-09-26 09:15:00,
2013-09-26 04:17:00,57.1,52.0,29.86,ESE,113,0.0,1.0,83,0.00,,CLR,0.00,0.00,VWS V14.00,2013-09-26 09:17:00,
2013-09-26 04:19:00,57.1,52.0,29.86,ESE,113,0.0,0.0,83,0.00,,CLR,0.00,0.00,VWS V14.00,2013-09-26 09:19:00,
2013-09-26 04:20:00,57.1,52.0,29.86,ESE,111,0.0,1.0,83,0.00,,CLR,0.00,0.00,VWS V14.00,2013-09-26 09:20:00,
2013-09-26 04:22:00,57.2,52.1,29.86,ESE,111,0.0,2.0,83,0.00,,CLR,0.00,0.00,VWS V14.00,2013-09-26 09:22:00,
2013-09-26 04:24:00,57.2,52.1,29.86,ESE,112,0.0,0.0,83,0.00,,CLR,0.00,0.00,VWS V14.00,2013-09-26 09:24:00,
2013-09-26 04:25:00,57.2,52.1,29.86,ESE,111,0.0,2.0,83,0.00,,CLR,0.00,0.00,VWS V14.00,2013-09-26 09:25:00,
2013-09-26 04:27:00,57.2,52.1,29.86,ESE,112,0.0,2.0,83,0.00,,CLR,0.00,0.00,VWS V14.00,2013-09-26 09:27:00,
2013-09-26 04:29:00,57.3,52.2,29.86,ESE,112,0.0,0.0,83,0.00,,CLR,0.00,0.00,VWS V14.00,2013-09-26 09:29:00,
2013-09-26 04:30:00,57.3,52.2,29.86,ESE,112,0.0,0.0,83,0.00,,CLR,0.00,0.00,VWS V14.00,2013-09-26 09:30:00,
2013-09-26 04:31:00,57.3,52.2,29.86,ESE,112,0.0,0.0,83,0.00,,CLR,0.00,0.00,VWS V14.00,2013-09-26 09:31:00,
2013-09-26 04:32:00,57.2,52.1,29.86,ESE,112,0.0,1.0,83,0.00,,CLR,0.00,0.00,VWS V14.00,2013-09-26 09:32:00,
2013-09-26 04:34:00,57.2,52.1,29.86,ESE,112,1.0,2.0,83,0.00,,CLR,0.00,0.00,VWS V14.00,2013-09-26 09:34:00,
2013-09-26 04:35:00,57.2,52.1,29.86,ESE,112,1.0,1.0,83,0.00,,CLR,0.00,0.00,VWS V14.00,2013-09-26 09:35:00,
2013-09-26 04:36:00,57.1,52.0,29.86,ESE,112,0.0,2.0,83,0.00,,CLR,0.00,0.00,VWS V14.00,2013-09-26 09:36:00,
2013-09-26 04:38:00,57.0,51.9,29.86,ESE,112,0.0,2.0,83,0.00,,CLR,0.00,0.00,VWS V14.00,2013-09-26 09:38:00,
2013-09-26 04:40:00,56.9,52.1,29.86,ESE,112,0.0,0.0,84,0.00,,CLR,0.00,0.00,VWS V14.00,2013-09-26 09:40:00,
2013-09-26 04:41:00,56.9,52.1,29.86,ESE,112,0.0,0.0,84,0.00,,CLR,0.00,0.00,VWS V14.00,2013-09-26 09:41:00,
2013-09-26 04:42:00,56.8,52.0,29.86,ESE,112,0.0,2.0,84,0.00,,CLR,0.00,0.00,VWS V14.00,2013-09-26 09:42:00,
2013-09-26 04:43:00,56.8,52.0,29.86,ESE,112,0.0,2.0,84,0.00,,CLR,0.00,0.00,VWS V14.00,2013-09-26 09:43:00,
2013-09-26 04:45:00,56.7,51.9,29.86,ESE,112,0.0,0.0,84,0.00,,CLR,0.00,0.00,VWS V14.00,2013-09-26 09:45:00,
2013-09-26 04:46:00,56.7,51.9,29.86,ESE,112,0.0,0.0,84,0.00,,CLR,0.00,0.00,VWS V14.00,2013-09-26 09:46:00,
2013-09-26 04:47:00,56.6,51.8,29.86,ESE,112,0.0,0.0,84,0.00,,CLR,0.00,0.00,VWS V14.00,2013-09-26 09:47:00,
2013-09-26 04:48:00,56.6,51.8,29.87,ESE,112,0.0,0.0,84,0.00,,CLR,0.00,0.00,VWS V14.00,2013-09-26 09:48:00,
2013-09-26 04:50:00,56.5,51.7,29.86,ESE,112,0.0,0.0,84,0.00,,CLR,0.00,0.00,VWS V14.00,2013-09-26 09:50:00,
2013-09-26 04:51:00,56.5,51.7,29.86,ESE,112,0.0,0.0,84,0.00,,CLR,0.00,0.00,VWS V14.00,2013-09-26 09:51:00,
2013-09-26 04:52:00,56.5,51.7,29.86,ESE,112,0.0,0.0,84,0.00,,CLR,0.00,0.00,VWS V14.00,2013-09-26 09:52:00,
2013-09-26 04:53:00,56.4,51.6,29.86,ESE,112,0.0,0.0,84,0.00,,CLR,0.00,0.00,VWS V14.00,2013-09-26 09:53:00,
2013-09-26 04:55:00,56.4,51.6,29.86,ESE,112,0.0,1.0,84,0.00,,CLR,0.00,0.00,VWS V14.00,2013-09-26 09:55:00,
2013-09-26 04:56:00,56.4,51.3,29.86,ESE,112,0.0,1.0,83,0.00,,CLR,0.00,0.00,VWS V14.00,2013-09-26 09:56:00,
2013-09-26 04:57:00,56.4,51.3,29.87,ESE,112,0.0,1.0,83,0.00,,CLR,0.00,0.00,VWS V14.00,2013-09-26 09:57:00,
2013-09-26 04:58:00,56.4,51.3,29.86,ESE,112,0.0,1.0,83,0.00,,CLR,0.00,0.00,VWS V14.00,2013-09-26 09:58:00,
2013-09-26 05:00:00,56.4,51.3,29.86,ESE,112,0.0,1.0,83,0.00,,CLR,0.00,0.00,VWS V14.00,2013-09-26 10:00:00,
2013-09-26 05:01:00,56.4,51.3,29.86,ESE,112,0.0,1.0,83,0.00,,CLR,0.00,0.00,VWS V14.00,2013-09-26 10:01:00,
2013-09-26 05:02:00,56.4,51.3,29.86,ESE,112,0.0,1.0,83,0.00,,CLR,0.00,0.00,VWS V14.00,2013-09-26 10:02:00,
2013-09-26 05:03:00,56.4,51.3,29.86,ESE,112,0.0,1.0,83,0.00,,CLR,0.00,0.00,VWS V14.00,2013-09-26 10:03:00,
2013-09-26 05:04:00,56.4,51.3,29.86,ESE,112,0.0,0.0,83,0.00,,CLR,0.00,0.00,VWS V14.00,2013-09-26 10:04:00,
2013-09-26 05:05:00,56.4,51.3,29.86,ESE,112,0.0,0.0,83,0.00,,CLR,0.00,0.00,VWS V14.00,2013-09-26 10:05:00,
2013-09-26 05:07:00,56.5,51.4,29.86,ESE,112,0.0,0.0,83,0.00,,CLR,0.00,0.00,VWS V14.00,2013-09-26 10:07:00,
2013-09-26 05:08:00,56.6,51.5,29.86,ESE,112,0.0,0.0,83,0.00,,CLR,0.00,0.00,VWS V14.00,2013-09-26 10:08:00,
2013-09-26 05:09:00,56.6,51.5,29.86,ESE,112,0.0,0.0,83,0.00,,CLR,0.00,0.00,VWS V14.00,2013-09-26 10:09:00,
2013-09-26 05:10:00,56.7,51.6,29.86,ESE,112,0.0,0.0,83,0.00,,CLR,0.00,0.00,VWS V14.00,2013-09-26 10:10:00,
2013-09-26 05:12:00,56.7,51.6,29.86,ESE,113,0.0,1.0,83,0.00,,CLR,0.00,0.00,VWS V14.00,2013-09-26 10:12:00,
2013-09-26 05:13:00,56.8,51.7,29.86,ESE,113,0.0,1.0,83,0.00,,CLR,0.00,0.00,VWS V14.00,2013-09-26 10:13:00,
2013-09-26 05:14:00,56.8,51.7,29.86,ESE,112,0.0,0.0,83,0.00,,CLR,0.00,0.00,VWS V14.00,2013-09-26 10:14:00,
2013-09-26 05:15:00,56.9,51.8,29.86,ESE,112,0.0,0.0,83,0.00,,CLR,0.00,0.00,VWS V14.00,2013-09-26 10:15:00,
2013-09-26 05:17:00,56.9,51.8,29.86,ESE,112,1.0,1.0,83,0.00,,CLR,0.00,0.00,VWS V14.00,2013-09-26 10:17:00,
2013-09-26 05:18:00,56.9,51.8,29.86,ESE,123,0.0,4.0,83,0.00,,CLR,0.00,0.00,VWS V14.00,2013-09-26 10:18:00,
2013-09-26 05:19:00,56.9,51.8,29.86,SE,126,1.0,4.0,83,0.00,,CLR,0.00,0.00,VWS V14.00,2013-09-26 10:19:00,
2013-09-26 05:20:00,57.0,51.9,29.86,ESE,121,0.0,5.0,83,0.00,,CLR,0.00,0.00,VWS V14.00,2013-09-26 10:20:00,
2013-09-26 05:22:00,57.0,51.9,29.86,ESE,121,2.0,5.0,83,0.00,,CLR,0.00,0.00,VWS V14.00,2013-09-26 10:22:00,
2013-09-26 05:23:00,57.0,51.9,29.86,ESE,121,0.0,0.0,83,0.00,,CLR,0.00,0.00,VWS V14.00,2013-09-26 10:23:00,
2013-09-26 05:24:00,57.0,51.9,29.86,ESE,121,0.0,0.0,83,0.00,,CLR,0.00,0.00,VWS V14.00,2013-09-26 10:24:00,
2013-09-26 05:25:00,57.0,51.9,29.86,ESE,121,0.0,5.0,83,0.00,,CLR,0.00,0.00,VWS V14.00,2013-09-26 10:25:00,
2013-09-26 05:26:00,57.0,51.9,29.86,ESE,121,0.0,0.0,83,0.00,,CLR,0.00,0.00,VWS V14.00,2013-09-26 10:26:00,
2013-09-26 05:27:00,57.1,52.0,29.86,ESE,121,1.0,1.0,83,0.00,,CLR,0.00,0.00,VWS V14.00,2013-09-26 10:27:00,
2013-09-26 05:29:00,57.1,52.0,29.86,SE,132,0.0,4.0,83,0.00,,CLR,0.00,0.00,VWS V14.00,2013-09-26 10:29:00,
2013-09-26 05:30:00,57.1,52.0,29.86,SE,132,0.0,4.0,83,0.00,,CLR,0.00,0.00,VWS V14.00,2013-09-26 10:30:00,
2013-09-26 05:31:00,57.1,52.0,29.86,SE,132,0.0,4.0,83,0.00,,CLR,0.00,0.00,VWS V14.00,2013-09-26 10:31:00,
2013-09-26 05:33:00,57.1,52.0,29.86,SE,133,0.0,4.0,83,0.00,,CLR,0.00,0.00,VWS V14.00,2013-09-26 10:33:00,
2013-09-26 05:34:00,57.1,52.0,29.86,SE,132,0.0,2.0,83,0.00,,CLR,0.00,0.00,VWS V14.00,2013-09-26 10:34:00,
2013-09-26 05:35:00,57.1,52.0,29.86,SE,132,0.0,2.0,83,0.00,,CLR,0.00,0.00,VWS V14.00,2013-09-26 10:35:00,
2013-09-26 05:36:00,57.1,52.0,29.86,SE,128,0.0,2.0,83,0.00,,CLR,0.00,0.00,VWS V14.00,2013-09-26 10:36:00,
2013-09-26 05:38:00,57.1,52.0,29.86,SE,128,0.0,2.0,83,0.00,,CLR,0.00,0.00,VWS V14.00,2013-09-26 10:38:00,
2013-09-26 05:39:00,57.1,52.0,29.86,ESE,111,0.0,4.0,83,0.00,,CLR,0.00,0.00,VWS V14.00,2013-09-26 10:39:00,
2013-09-26 05:40:00,57.1,52.0,29.86,ESE,111,0.0,4.0,83,0.00,,CLR,0.00,0.00,VWS V14.00,2013-09-26 10:40:00,
2013-09-26 05:41:00,57.1,52.0,29.86,ESE,111,0.0,4.0,83,0.00,,CLR,0.00,0.00,VWS V14.00,2013-09-26 10:41:00,
2013-09-26 05:43:00,57.1,52.0,29.86,ESE,111,0.0,4.0,83,0.00,,CLR,0.00,0.00,VWS V14.00,2013-09-26 10:43:00,
2013-09-26 05:45:00,57.1,52.0,29.86,ESE,111,2.0,2.0,83,0.00,,CLR,0.00,0.00,VWS V14.00,2013-09-26 10:45:00,
2013-09-26 05:46:00,57.1,52.0,29.86,East,99,0.0,4.0,83,0.00,,CLR,0.00,0.00,VWS V14.00,2013-09-26 10:46:00,
2013-09-26 05:48:00,57.1,52.0,29.86,SE,128,0.0,4.0,83,0.00,,CLR,0.00,0.00,VWS V14.00,2013-09-26 10:48:00,
2013-09-26 05:50:00,57.2,52.1,29.86,SSE,149,0.0,2.0,83,0.00,,CLR,0.00,0.00,VWS V14.00,2013-09-26 10:50:00,
2013-09-26 05:51:00,57.2,52.1,29.86,SE,144,1.0,2.0,83,0.00,,CLR,0.00,0.00,VWS V14.00,2013-09-26 10:51:00,
2013-09-26 05:53:00,57.2,52.1,29.86,ESE,111,0.0,2.0,83,0.00,,CLR,0.00,0.00,VWS V14.00,2013-09-26 10:53:00,
2013-09-26 05:55:00,57.2,52.1,29.86,SE,136,2.0,4.0,83,0.00,,CLR,0.00,0.00,VWS V14.00,2013-09-26 10:55:00,
2013-09-26 05:56:00,57.2,52.1,29.86,ESE,115,0.0,4.0,83,0.00,,CLR,0.00,0.00,VWS V14.00,2013-09-26 10:56:00,
2013-09-26 05:57:00,57.3,52.2,29.86,ESE,108,0.0,4.0,83,0.00,,CLR,0.00,0.00,VWS V14.00,2013-09-26 10:57:00,
2013-09-26 05:58:00,57.3,52.2,29.86,East,90,5.0,5.0,83,0.00,,CLR,0.00,0.00,VWS V14.00,2013-09-26 10:58:00,
2013-09-26 06:00:00,57.3,52.2,29.86,ESE,105,4.0,4.0,83,0.00,,CLR,0.00,0.00,VWS V14.00,2013-09-26 11:00:00,
2013-09-26 06:01:00,57.3,52.2,29.86,SE,128,0.0,4.0,83,0.00,,CLR,0.00,0.00,VWS V14.00,2013-09-26 11:01:00,
2013-09-26 06:02:00,57.3,52.2,29.86,SE,128,1.0,4.0,83,0.00,,CLR,0.00,0.00,VWS V14.00,2013-09-26 11:02:00,
2013-09-26 06:03:00,57.3,52.2,29.86,SE,128,0.0,1.0,83,0.00,,CLR,0.00,0.00,VWS V14.00,2013-09-26 11:03:00,
2013-09-26 06:05:00,57.3,52.2,29.86,SE,136,0.0,2.0,83,0.00,,CLR,0.00,0.00,VWS V14.00,2013-09-26 11:05:00,
2013-09-26 06:07:00,57.3,52.5,29.86,SSE,154,0.0,4.0,84,0.00,,CLR,0.00,0.00,VWS V14.00,2013-09-26 11:07:00,
2013-09-26 06:08:00,57.3,52.2,29.86,SSE,150,0.0,4.0,83,0.00,,CLR,0.00,0.00,VWS V14.00,2013-09-26 11:08:00,
2013-09-26 06:10:00,57.3,52.2,29.86,ESE,117,0.0,4.0,83,0.00,,CLR,0.00,0.00,VWS V14.00,2013-09-26 11:10:00,
2013-09-26 06:12:00,57.3,52.2,29.86,SE,124,0.0,4.0,83,0.00,,CLR,0.00,0.00,VWS V14.00,2013-09-26 11:12:00,
2013-09-26 06:13:00,57.3,52.2,29.86,SE,145,0.0,0.0,83,0.00,,CLR,0.00,0.00,VWS V14.00,2013-09-26 11:13:00,
2013-09-26 06:14:00,57.3,52.2,29.86,SE,146,0.0,1.0,83,0.00,,CLR,0.00,0.00,VWS V14.00,2013-09-26 11:14:00,
2013-09-26 06:15:00,57.3,52.2,29.86,ESE,108,0.0,2.0,83,0.00,,CLR,0.00,0.00,VWS V14.00,2013-09-26 11:15:00,
2013-09-26 06:17:00,57.3,52.2,29.86,SSE,148,0.0,2.0,83,0.00,,CLR,0.00,0.00,VWS V14.00,2013-09-26 11:17:00,
2013-09-26 06:18:00,57.3,52.2,29.86,SE,143,0.0,1.0,83,0.00,,CLR,0.00,0.00,VWS V14.00,2013-09-26 11:18:00,
2013-09-26 06:19:00,57.3,52.2,29.86,SE,143,0.0,1.0,83,0.00,,CLR,0.00,0.00,VWS V14.00,2013-09-26 11:19:00,
2013-09-26 06:20:00,57.3,52.2,29.86,SE,143,0.0,2.0,83,0.00,,CLR,0.00,0.00,VWS V14.00,2013-09-26 11:20:00,
2013-09-26 06:22:00,57.3,52.2,29.86,ESE,115,0.0,2.0,83,0.00,,CLR,0.00,0.00,VWS V14.00,2013-09-26 11:22:00,
2013-09-26 06:24:00,57.3,52.2,29.86,ESE,111,1.0,4.0,83,0.00,,CLR,0.00,0.00,VWS V14.00,2013-09-26 11:24:00,
2013-09-26 06:25:00,57.3,52.2,29.86,SE,125,0.0,4.0,83,0.00,,CLR,0.00,0.00,VWS V14.00,2013-09-26 11:25:00,
2013-09-26 06:27:00,57.3,52.2,29.86,East,88,1.0,4.0,83,0.00,,CLR,0.00,0.00,VWS V14.00,2013-09-26 11:27:00,
2013-09-26 06:28:00,57.3,52.2,29.86,East,98,0.0,4.0,83,0.00,,CLR,0.00,0.00,VWS V14.00,2013-09-26 11:28:00,
2013-09-26 06:29:00,57.3,52.2,29.86,ESE,104,4.0,4.0,83,0.00,,CLR,0.00,0.00,VWS V14.00,2013-09-26 11:29:00,
2013-09-26 06:30:00,57.3,52.2,29.86,ESE,107,0.0,4.0,83,0.00,,CLR,0.00,0.00,VWS V14.00,2013-09-26 11:30:00,
2013-09-26 06:32:00,57.3,52.2,29.86,ESE,107,1.0,4.0,83,0.00,,CLR,0.00,0.00,VWS V14.00,2013-09-26 11:32:00,
2013-09-26 06:33:00,57.3,52.2,29.86,SE,137,2.0,4.0,83,0.00,,CLR,0.00,0.00,VWS V14.00,2013-09-26 11:33:00,
2013-09-26 06:34:00,57.3,52.5,29.86,SE,135,0.0,1.0,84,0.00,,CLR,0.00,0.00,VWS V14.00,2013-09-26 11:34:00,
2013-09-26 06:35:00,57.3,52.2,29.86,SE,134,0.0,1.0,83,0.00,,CLR,0.00,0.00,VWS V14.00,2013-09-26 11:35:00,
2013-09-26 06:36:00,57.3,52.5,29.86,SE,134,0.0,1.0,84,0.00,,CLR,0.00,0.00,VWS V14.00,2013-09-26 11:36:00,
2013-09-26 06:37:00,57.3,52.5,29.86,SE,133,1.0,4.0,84,0.00,,CLR,0.00,0.00,VWS V14.00,2013-09-26 11:37:00,
2013-09-26 06:38:00,57.3,52.5,29.86,SE,126,1.0,2.0,84,0.00,,CLR,0.00,0.00,VWS V14.00,2013-09-26 11:38:00,
2013-09-26 06:39:00,57.3,52.5,29.86,East,79,4.0,6.0,84,0.00,,CLR,0.00,0.00,VWS V14.00,2013-09-26 11:39:00,
2013-09-26 06:40:00,57.3,52.5,29.86,SSE,148,5.0,6.0,84,0.00,,CLR,0.00,0.00,VWS V14.00,2013-09-26 11:40:00,
2013-09-26 06:41:00,57.3,52.5,29.86,SE,139,1.0,6.0,84,0.00,,CLR,0.00,0.00,VWS V14.00,2013-09-26 11:41:00,
2013-09-26 06:42:00,57.4,52.6,29.86,ESE,119,0.0,6.0,84,0.00,,CLR,0.00,0.00,VWS V14.00,2013-09-26 11:42:00,
2013-09-26 06:43:00,57.3,52.5,29.86,ESE,113,0.0,0.0,84,0.00,,CLR,0.00,0.00,VWS V14.00,2013-09-26 11:43:00,
2013-09-26 06:44:00,57.4,52.6,29.86,ESE,113,0.0,0.0,84,0.00,,CLR,0.00,0.00,VWS V14.00,2013-09-26 11:44:00,
2013-09-26 06:45:00,57.4,52.6,29.86,ESE,113,0.0,6.0,84,0.00,,CLR,0.00,0.00,VWS V14.00,2013-09-26 11:45:00,
2013-09-26 06:46:00,57.4,52.6,29.86,ESE,113,0.0,1.0,84,0.00,,CLR,0.00,0.00,VWS V14.00,2013-09-26 11:46:00,
2013-09-26 06:48:00,57.4,52.6,29.86,SE,128,0.0,6.0,84,0.00,,CLR,0.00,0.00,VWS V14.00,2013-09-26 11:48:00,
2013-09-26 06:49:00,57.4,52.6,29.86,South,175,0.0,1.0,84,0.00,,CLR,0.00,0.00,VWS V14.00,2013-09-26 11:49:00,
2013-09-26 06:50:00,57.4,52.6,29.86,SE,128,0.0,6.0,84,0.00,,CLR,0.00,0.00,VWS V14.00,2013-09-26 11:50:00,
2013-09-26 06:51:00,57.4,52.6,29.86,ESE,111,0.0,2.0,84,0.00,,CLR,0.00,0.00,VWS V14.00,2013-09-26 11:51:00,
2013-09-26 06:53:00,57.4,52.6,29.87,South,171,0.0,0.0,84,0.00,,CLR,0.00,0.00,VWS V14.00,2013-09-26 11:53:00,
2013-09-26 06:54:00,57.4,52.6,29.87,South,171,0.0,1.0,84,0.00,,CLR,0.00,0.00,VWS V14.00,2013-09-26 11:54:00,
2013-09-26 06:55:00,57.4,52.6,29.86,South,172,0.0,2.0,84,0.00,,CLR,0.00,0.00,VWS V14.00,2013-09-26 11:55:00,
2013-09-26 06:56:00,57.4,52.6,29.86,SE,126,0.0,2.0,84,0.00,,CLR,0.00,0.00,VWS V14.00,2013-09-26 11:56:00,
2013-09-26 06:57:00,57.4,52.6,29.86,SE,126,0.0,2.0,84,0.00,,CLR,0.00,0.00,VWS V14.00,2013-09-26 11:57:00,
2013-09-26 06:59:00,57.5,52.7,29.87,East,101,0.0,0.0,84,0.00,,CLR,0.00,0.00,VWS V14.00,2013-09-26 11:59:00,
2013-09-26 07:00:00,57.5,52.7,29.87,East,101,0.0,2.0,84,0.00,,CLR,0.00,0.00,VWS V14.00,2013-09-26 12:00:00,
2013-09-26 07:02:00,57.5,52.7,29.87,ESE,118,0.0,2.0,84,0.00,,CLR,0.00,0.00,VWS V14.00,2013-09-26 12:02:00,
2013-09-26 07:03:00,57.5,52.7,29.87,ESE,119,0.0,2.0,84,0.00,,CLR,0.00,0.00,VWS V14.00,2013-09-26 12:03:00,
2013-09-26 07:04:00,57.5,52.7,29.87,ESE,119,0.0,0.0,84,0.00,,CLR,0.00,0.00,VWS V14.00,2013-09-26 12:04:00,
2013-09-26 07:05:00,57.5,52.7,29.87,ESE,118,0.0,1.0,84,0.00,,CLR,0.00,0.00,VWS V14.00,2013-09-26 12:05:00,
2013-09-26 07:07:00,57.5,52.7,29.87,SE,128,0.0,1.0,84,0.00,,CLR,0.00,0.00,VWS V14.00,2013-09-26 12:07:00,
2013-09-26 07:08:00,57.5,52.7,29.87,SE,128,0.0,1.0,84,0.00,,CLR,0.00,0.00,VWS V14.00,2013-09-26 12:08:00,
2013-09-26 07:09:00,57.5,52.7,29.87,SE,128,0.0,0.0,84,0.00,,CLR,0.00,0.00,VWS V14.00,2013-09-26 12:09:00,
2013-09-26 07:10:00,57.5,52.7,29.87,SE,128,0.0,0.0,84,0.00,,CLR,0.00,0.00,VWS V14.00,2013-09-26 12:10:00,
2013-09-26 07:12:00,57.5,52.7,29.87,SE,132,0.0,1.0,84,0.00,,CLR,0.00,5.00,VWS V14.00,2013-09-26 12:12:00,
2013-09-26 07:13:00,57.5,52.7,29.88,SE,132,0.0,0.0,84,0.00,,CLR,0.00,5.00,VWS V14.00,2013-09-26 12:13:00,
2013-09-26 07:15:00,57.5,52.7,29.88,ESE,107,0.0,1.0,84,0.00,,CLR,0.00,7.00,VWS V14.00,2013-09-26 12:15:00,
2013-09-26 07:18:00,57.5,52.7,29.88,ESE,107,0.0,1.0,84,0.00,,CLR,0.00,9.00,VWS V14.00,2013-09-26 12:18:00,
2013-09-26 07:20:00,57.5,52.7,29.88,ESE,106,0.0,1.0,84,0.00,,CLR,0.00,9.00,VWS V14.00,2013-09-26 12:20:00,
2013-09-26 07:23:00,57.6,52.8,29.88,ESE,107,0.0,1.0,84,0.00,,CLR,0.00,12.00,VWS V14.00,2013-09-26 12:23:00,
2013-09-26 07:25:00,57.6,52.8,29.88,ESE,107,0.0,2.0,84,0.00,,CLR,0.00,12.00,VWS V14.00,2013-09-26 12:25:00,
2013-09-26 07:28:00,57.6,52.8,29.88,ESE,107,0.0,2.0,84,0.00,,CLR,0.00,14.00,VWS V14.00,2013-09-26 12:28:00,
2013-09-26 07:30:00,57.7,52.9,29.88,ESE,107,0.0,2.0,84,0.00,,CLR,0.00,16.00,VWS V14.00,2013-09-26 12:30:00,
2013-09-26 07:33:00,57.7,52.9,29.88,SSE,155,4.0,4.0,84,0.00,,CLR,0.00,18.00,VWS V14.00,2013-09-26 12:33:00,
2013-09-26 07:35:00,57.7,52.9,29.88,East,90,0.0,6.0,84,0.00,,CLR,0.00,19.00,VWS V14.00,2013-09-26 12:35:00,
2013-09-26 07:36:00,57.7,52.9,29.88,ESE,117,2.0,6.0,84,0.00,,CLR,0.00,19.00,VWS V14.00,2013-09-26 12:36:00,
2013-09-26 07:38:00,57.8,53.0,29.88,East,88,0.0,1.0,84,0.00,,CLR,0.00,21.00,VWS V14.00,2013-09-26 12:38:00,
2013-09-26 07:40:00,57.7,52.9,29.88,ESE,103,0.0,1.0,84,0.00,,CLR,0.00,21.00,VWS V14.00,2013-09-26 12:40:00,
2013-09-26 07:41:00,57.7,52.9,29.88,ESE,103,0.0,1.0,84,0.00,,CLR,0.00,23.00,VWS V14.00,2013-09-26 12:41:00,
2013-09-26 07:44:00,57.8,53.0,29.88,East,96,0.0,2.0,84,0.00,,CLR,0.00,25.00,VWS V14.00,2013-09-26 12:44:00,
2013-09-26 07:45:00,57.8,53.0,29.88,East,96,1.0,2.0,84,0.00,,CLR,0.00,25.00,VWS V14.00,2013-09-26 12:45:00,
2013-09-26 07:46:00,57.8,53.0,29.88,SE,136,1.0,2.0,84,0.00,,CLR,0.00,26.00,VWS V14.00,2013-09-26 12:46:00,
2013-09-26 07:49:00,57.8,53.0,29.88,SE,128,0.0,1.0,84,0.00,,CLR,0.00,26.00,VWS V14.00,2013-09-26 12:49:00,
2013-09-26 07:50:00,57.8,53.0,29.88,SE,128,1.0,1.0,84,0.00,,CLR,0.00,28.00,VWS V14.00,2013-09-26 12:50:00,
2013-09-26 07:51:00,57.8,53.0,29.88,SE,128,0.0,1.0,84,0.00,,CLR,0.00,28.00,VWS V14.00,2013-09-26 12:51:00,
2013-09-26 07:54:00,57.8,53.0,29.88,East,84,1.0,4.0,84,0.00,,CLR,0.00,30.00,VWS V14.00,2013-09-26 12:54:00,
2013-09-26 07:55:00,57.8,53.0,29.88,ESE,115,0.0,2.0,84,0.00,,CLR,0.00,30.00,VWS V14.00,2013-09-26 12:55:00,
2013-09-26 07:56:00,57.8,53.0,29.88,ESE,113,0.0,4.0,84,0.00,,CLR,0.00,30.00,VWS V14.00,2013-09-26 12:56:00,
2013-09-26 07:57:00,57.9,53.1,29.88,ESE,112,0.0,4.0,84,0.00,,CLR,0.00,32.00,VWS V14.00,2013-09-26 12:57:00,
2013-09-26 07:59:00,57.9,53.1,29.88,SSE,160,0.0,1.0,84,0.00,,CLR,0.00,32.00,VWS V14.00,2013-09-26 12:59:00,
2013-09-26 08:00:00,57.9,53.1,29.88,SE,128,2.0,5.0,84,0.00,,CLR,0.00,32.00,VWS V14.00,2013-09-26 13:00:00,
2013-09-26 08:01:00,58.0,53.2,29.88,ESE,103,5.0,5.0,84,0.00,,CLR,0.00,33.00,VWS V14.00,2013-09-26 13:01:00,
2013-09-26 08:02:00,58.0,53.2,29.88,SE,140,4.0,5.0,84,0.00,,CLR,0.00,33.00,VWS V14.00,2013-09-26 13:02:00,
2013-09-26 08:03:00,58.0,53.2,29.88,SE,142,2.0,5.0,84,0.00,,CLR,0.00,33.00,VWS V14.00,2013-09-26 13:03:00,
2013-09-26 08:04:00,58.1,53.3,29.88,SE,142,0.0,2.0,84,0.00,,CLR,0.00,33.00,VWS V14.00,2013-09-26 13:04:00,
2013-09-26 08:05:00,58.0,53.2,29.88,SE,142,0.0,5.0,84,0.00,,CLR,0.00,33.00,VWS V14.00,2013-09-26 13:05:00,
2013-09-26 08:06:00,58.1,53.3,29.88,SE,142,0.0,2.0,84,0.00,,CLR,0.00,35.00,VWS V14.00,2013-09-26 13:06:00,
2013-09-26 08:07:00,58.1,53.3,29.88,SE,137,0.0,2.0,84,0.00,,CLR,0.00,35.00,VWS V14.00,2013-09-26 13:07:00,
2013-09-26 08:08:00,58.2,53.4,29.88,SE,138,1.0,2.0,84,0.00,,CLR,0.00,37.00,VWS V14.00,2013-09-26 13:08:00,
2013-09-26 08:09:00,58.2,53.4,29.88,SE,138,0.0,2.0,84,0.00,,CLR,0.00,37.00,VWS V14.00,2013-09-26 13:09:00,
2013-09-26 08:10:00,58.2,53.4,29.88,ESE,109,0.0,4.0,84,0.00,,CLR,0.00,37.00,VWS V14.00,2013-09-26 13:10:00,
2013-09-26 08:11:00,58.2,53.4,29.88,SE,139,0.0,2.0,84,0.00,,CLR,0.00,39.00,VWS V14.00,2013-09-26 13:11:00,
2013-09-26 08:12:00,58.3,53.5,29.88,SE,139,0.0,2.0,84,0.00,,CLR,0.00,39.00,VWS V14.00,2013-09-26 13:12:00,
2013-09-26 08:13:00,58.4,53.6,29.88,SE,138,1.0,2.0,84,0.00,,CLR,0.00,42.00,VWS V14.00,2013-09-26 13:13:00,
2013-09-26 08:14:00,58.4,53.6,29.88,SE,138,0.0,1.0,84,0.00,,CLR,0.00,51.00,VWS V14.00,2013-09-26 13:14:00,
2013-09-26 08:15:00,58.4,53.6,29.88,SE,138,0.0,2.0,84,0.00,,CLR,0.00,42.00,VWS V14.00,2013-09-26 13:15:00,
2013-09-26 08:16:00,58.5,53.7,29.88,SE,130,0.0,1.0,84,0.00,,CLR,0.00,47.00,VWS V14.00,2013-09-26 13:16:00,
2013-09-26 08:17:00,58.6,53.8,29.88,SE,131,0.0,1.0,84,0.00,,CLR,0.00,44.00,VWS V14.00,2013-09-26 13:17:00,
2013-09-26 08:18:00,58.6,53.8,29.88,SE,131,0.0,1.0,84,0.00,,CLR,0.00,44.00,VWS V14.00,2013-09-26 13:18:00,
2013-09-26 08:19:00,58.7,53.9,29.88,SSE,159,1.0,4.0,84,0.00,,CLR,0.00,49.00,VWS V14.00,2013-09-26 13:19:00,
2013-09-26 08:20:00,58.7,53.9,29.88,SSE,158,0.0,4.0,84,0.00,,CLR,0.00,49.00,VWS V14.00,2013-09-26 13:20:00,
2013-09-26 08:21:00,58.8,54.0,29.88,SSE,158,0.0,4.0,84,0.00,,CLR,0.00,47.00,VWS V14.00,2013-09-26 13:21:00,
2013-09-26 08:22:00,58.8,54.0,29.88,SSE,158,1.0,4.0,84,0.00,,CLR,0.00,51.00,VWS V14.00,2013-09-26 13:22:00,
2013-09-26 08:24:00,58.9,54.1,29.88,SSE,157,0.0,0.0,84,0.00,,CLR,0.00,51.00,VWS V14.00,2013-09-26 13:24:00,
2013-09-26 08:25:00,59.0,54.2,29.88,SSE,158,0.0,1.0,84,0.00,,CLR,0.00,46.00,VWS V14.00,2013-09-26 13:25:00,
2013-09-26 08:26:00,59.1,54.3,29.88,SE,146,0.0,2.0,84,0.00,,CLR,0.00,46.00,VWS V14.00,2013-09-26 13:26:00,
2013-09-26 08:27:00,59.1,54.3,29.88,SE,133,0.0,2.0,84,0.00,,CLR,0.00,44.00,VWS V14.00,2013-09-26 13:27:00,
2013-09-26 08:30:00,59.3,54.5,29.88,ESE,117,0.0,4.0,84,0.00,,CLR,0.00,46.00,VWS V14.00,2013-09-26 13:30:00,
2013-09-26 08:31:00,59.4,54.6,29.89,SSW,196,0.0,4.0,84,0.00,,CLR,0.00,49.00,VWS V14.00,2013-09-26 13:31:00,
2013-09-26 08:33:00,59.5,54.7,29.89,SE,141,0.0,4.0,84,0.00,,CLR,0.00,47.00,VWS V14.00,2013-09-26 13:33:00,
2013-09-26 08:35:00,59.6,54.8,29.89,ESE,111,1.0,2.0,84,0.00,,CLR,0.00,49.00,VWS V14.00,2013-09-26 13:35:00,
2013-09-26 08:36:00,59.7,54.9,29.89,SE,146,1.0,4.0,84,0.00,,CLR,0.00,54.00,VWS V14.00,2013-09-26 13:36:00,
2013-09-26 08:38:00,59.8,55.0,29.89,SE,137,0.0,6.0,84,0.00,,CLR,0.00,70.00,VWS V14.00,2013-09-26 13:38:00,
2013-09-26 08:40:00,59.9,55.1,29.89,SSE,159,0.0,2.0,84,0.00,,CLR,0.00,62.00,VWS V14.00,2013-09-26 13:40:00,
2013-09-26 08:41:00,60.0,55.2,29.89,SSE,159,0.0,2.0,84,0.00,,CLR,0.00,56.00,VWS V14.00,2013-09-26 13:41:00,
2013-09-26 08:43:00,60.2,55.3,29.89,SSE,159,0.0,2.0,84,0.00,,CLR,0.00,51.00,VWS V14.00,2013-09-26 13:43:00,
2013-09-26 08:45:00,60.3,55.5,29.89,SSW,196,0.0,1.0,84,0.00,,CLR,0.00,51.00,VWS V14.00,2013-09-26 13:45:00,
2013-09-26 08:46:00,60.3,55.5,29.89,South,186,0.0,1.0,84,0.00,,CLR,0.00,51.00,VWS V14.00,2013-09-26 13:46:00,
2013-09-26 08:48:00,60.5,55.7,29.89,South,184,0.0,1.0,84,0.00,,CLR,0.00,53.00,VWS V14.00,2013-09-26 13:48:00,
2013-09-26 08:50:00,60.5,55.7,29.89,South,184,0.0,1.0,84,0.00,,CLR,0.00,53.00,VWS V14.00,2013-09-26 13:50:00,
2013-09-26 08:51:00,60.6,55.8,29.89,South,181,0.0,1.0,84,0.00,,CLR,0.00,56.00,VWS V14.00,2013-09-26 13:51:00,
2013-09-26 08:53:00,60.8,55.9,29.89,SSE,156,0.0,1.0,84,0.00,,CLR,0.00,130.00,VWS V14.00,2013-09-26 13:53:00,
2013-09-26 08:55:00,60.8,55.9,29.89,SSE,156,0.0,1.0,84,0.00,,CLR,0.00,130.00,VWS V14.00,2013-09-26 13:55:00,
2013-09-26 08:56:00,61.1,56.2,29.89,SSE,157,0.0,0.0,84,0.00,,CLR,0.00,137.00,VWS V14.00,2013-09-26 13:56:00,
2013-09-26 08:57:00,61.1,56.2,29.89,SSE,157,0.0,0.0,84,0.00,,CLR,0.00,137.00,VWS V14.00,2013-09-26 13:57:00,
2013-09-26 08:59:00,61.3,56.4,29.89,SSE,156,0.0,1.0,84,0.00,,CLR,0.00,105.00,VWS V14.00,2013-09-26 13:59:00,
2013-09-26 09:00:00,61.2,56.3,29.89,SSE,157,0.0,0.0,84,0.00,,CLR,0.00,114.00,VWS V14.00,2013-09-26 14:00:00,
2013-09-26 09:01:00,61.5,56.6,29.89,SSE,148,0.0,4.0,84,0.00,,CLR,0.00,63.00,VWS V14.00,2013-09-26 14:01:00,
2013-09-26 09:02:00,61.6,56.7,29.90,SSE,148,0.0,4.0,84,0.00,,CLR,0.00,81.00,VWS V14.00,2013-09-26 14:02:00,
2013-09-26 09:03:00,61.7,56.8,29.89,South,178,0.0,0.0,84,0.00,,CLR,0.00,69.00,VWS V14.00,2013-09-26 14:03:00,
2013-09-26 09:04:00,61.7,56.8,29.90,South,178,0.0,0.0,84,0.00,,CLR,0.00,56.00,VWS V14.00,2013-09-26 14:04:00,
2013-09-26 09:05:00,61.6,56.7,29.90,South,178,0.0,4.0,84,0.00,,CLR,0.00,69.00,VWS V14.00,2013-09-26 14:05:00,
2013-09-26 09:06:00,61.9,56.7,29.90,South,174,0.0,4.0,83,0.00,,CLR,0.00,193.00,VWS V14.00,2013-09-26 14:06:00,
2013-09-26 09:07:00,62.0,56.8,29.90,South,173,0.0,4.0,83,0.00,,CLR,0.00,153.00,VWS V14.00,2013-09-26 14:07:00,
2013-09-26 09:08:00,62.0,56.8,29.90,South,174,0.0,0.0,83,0.00,,CLR,0.00,91.00,VWS V14.00,2013-09-26 14:08:00,
2013-09-26 09:10:00,62.2,57.0,29.90,South,174,0.0,1.0,83,0.00,,CLR,0.00,58.00,VWS V14.00,2013-09-26 14:10:00,
2013-09-26 09:12:00,62.4,57.2,29.90,SE,130,2.0,5.0,83,0.00,,CLR,0.00,60.00,VWS V14.00,2013-09-26 14:12:00,
2013-09-26 09:13:00,62.5,57.3,29.90,SSE,151,0.0,5.0,83,0.00,,CLR,0.00,60.00,VWS V14.00,2013-09-26 14:13:00,
2013-09-26 09:14:00,62.6,57.4,29.90,SSE,152,0.0,1.0,83,0.00,,CLR,0.00,60.00,VWS V14.00,2013-09-26 14:14:00,
2013-09-26 09:15:00,62.6,58.0,29.90,SSE,152,0.0,1.0,85,0.00,,CLR,0.00,60.00,VWS V14.00,2013-09-26 14:15:00,
2013-09-26 09:17:00,62.7,57.5,29.90,SE,140,1.0,6.0,83,0.00,,CLR,0.00,60.00,VWS V14.00,2013-09-26 14:17:00,
2013-09-26 09:18:00,62.8,57.6,29.90,SSE,157,2.0,6.0,83,0.00,,CLR,0.00,90.00,VWS V14.00,2013-09-26 14:18:00,
2013-09-26 09:20:00,63.0,57.8,29.90,SSE,151,0.0,4.0,83,0.00,,CLR,0.00,62.00,VWS V14.00,2013-09-26 14:20:00,
2013-09-26 09:21:00,63.1,57.9,29.90,SSE,151,1.0,4.0,83,0.00,,CLR,0.00,93.00,VWS V14.00,2013-09-26 14:21:00,
2013-09-26 09:22:00,63.1,57.9,29.90,SSE,151,2.0,4.0,83,0.00,,CLR,0.00,155.00,VWS V14.00,2013-09-26 14:22:00,
2013-09-26 09:23:00,63.3,58.1,29.90,SSE,151,0.0,4.0,83,0.00,,CLR,0.00,200.00,VWS V14.00,2013-09-26 14:23:00,
2013-09-26 09:24:00,63.4,58.2,29.90,SSE,151,0.0,1.0,83,0.00,,CLR,0.00,221.00,VWS V14.00,2013-09-26 14:24:00,
2013-09-26 09:25:00,63.5,58.2,29.90,SSE,151,0.0,1.0,83,0.00,,CLR,0.00,311.00,VWS V14.00,2013-09-26 14:25:00,
2013-09-26 09:26:00,63.6,58.3,29.90,SE,139,2.0,4.0,83,0.00,,CLR,0.00,146.00,VWS V14.00,2013-09-26 14:26:00,
2013-09-26 09:27:00,63.7,58.5,29.90,SE,139,0.0,4.0,83,0.00,,CLR,0.00,146.00,VWS V14.00,2013-09-26 14:27:00,
2013-09-26 09:29:00,63.9,58.3,29.90,East,87,2.0,2.0,82,0.00,,CLR,0.00,127.00,VWS V14.00,2013-09-26 14:29:00,
2013-09-26 09:30:00,64.0,58.4,29.90,SSE,155,1.0,2.0,82,0.00,,CLR,0.00,149.00,VWS V14.00,2013-09-26 14:30:00,
2013-09-26 09:31:00,64.1,58.5,29.90,SE,140,1.0,4.0,82,0.00,,CLR,0.00,139.00,VWS V14.00,2013-09-26 14:31:00,
2013-09-26 09:32:00,64.1,58.5,29.90,South,169,0.0,4.0,82,0.00,,CLR,0.00,81.00,VWS V14.00,2013-09-26 14:32:00,
2013-09-26 09:35:00,64.3,58.7,29.90,South,170,0.0,4.0,82,0.00,,CLR,0.00,380.00,VWS V14.00,2013-09-26 14:35:00,
2013-09-26 09:36:00,64.4,58.8,29.90,South,170,0.0,4.0,82,0.00,,CLR,0.00,380.00,VWS V14.00,2013-09-26 14:36:00,
2013-09-26 09:37:00,64.4,58.5,29.90,SE,146,0.0,4.0,81,0.00,,CLR,0.00,383.00,VWS V14.00,2013-09-26 14:37:00,
2013-09-26 09:40:00,64.8,59.2,29.90,SE,138,1.0,5.0,82,0.00,,CLR,0.00,392.00,VWS V14.00,2013-09-26 14:40:00,
2013-09-26 09:41:00,65.0,59.0,29.90,ESE,103,0.0,5.0,81,0.00,,CLR,0.00,396.00,VWS V14.00,2013-09-26 14:41:00,
2013-09-26 09:42:00,65.1,59.1,29.90,SE,139,2.0,5.0,81,0.00,,CLR,0.00,397.00,VWS V14.00,2013-09-26 14:42:00,
2013-09-26 09:45:00,65.4,59.4,29.90,SSE,148,0.0,6.0,81,0.00,,CLR,0.00,406.00,VWS V14.00,2013-09-26 14:45:00,
2013-09-26 09:47:00,65.7,59.7,29.90,SSE,150,2.0,6.0,81,0.00,,CLR,0.00,411.00,VWS V14.00,2013-09-26 14:47:00,
2013-09-26 09:48:00,65.8,59.5,29.90,SE,131,1.0,7.0,80,0.00,,CLR,0.00,413.00,VWS V14.00,2013-09-26 14:48:00,
2013-09-26 09:50:00,65.9,59.6,29.90,SE,136,4.0,4.0,80,0.00,,CLR,0.00,420.00,VWS V14.00,2013-09-26 14:50:00,
2013-09-26 09:52:00,66.1,59.8,29.90,SE,144,0.0,6.0,80,0.00,,CLR,0.00,429.00,VWS V14.00,2013-09-26 14:52:00,
2013-09-26 09:54:00,66.3,60.0,29.90,SE,137,2.0,4.0,80,0.00,,CLR,0.00,431.00,VWS V14.00,2013-09-26 14:54:00,
2013-09-26 09:55:00,66.4,60.0,29.90,SSE,150,1.0,4.0,80,0.00,,CLR,0.00,434.00,VWS V14.00,2013-09-26 14:55:00,
2013-09-26 09:57:00,66.7,60.3,29.90,SSE,150,0.0,4.0,80,0.00,,CLR,0.00,443.00,VWS V14.00,2013-09-26 14:57:00,
2013-09-26 09:58:00,66.8,60.4,29.90,SSE,156,0.0,4.0,80,0.00,,CLR,0.00,443.00,VWS V14.00,2013-09-26 14:58:00,
2013-09-26 09:59:00,66.9,60.2,29.90,ESE,113,1.0,4.0,79,0.00,,CLR,0.00,448.00,VWS V14.00,2013-09-26 14:59:00,
2013-09-26 10:00:00,67.0,60.6,29.90,ESE,113,0.0,4.0,80,0.00,,CLR,0.00,446.00,VWS V14.00,2013-09-26 15:00:00,
2013-09-26 10:02:00,67.3,60.9,29.90,SSE,160,0.0,4.0,80,0.00,,CLR,0.00,323.00,VWS V14.00,2013-09-26 15:02:00,
2013-09-26 10:03:00,67.4,60.7,29.90,ESE,119,1.0,4.0,79,0.00,,CLR,0.00,299.00,VWS V14.00,2013-09-26 15:03:00,
2013-09-26 10:04:00,67.5,60.8,29.90,SE,138,0.0,4.0,79,0.00,,CLR,0.00,299.00,VWS V14.00,2013-09-26 15:04:00,
2013-09-26 10:05:00,67.6,60.9,29.89,SSE,157,1.0,4.0,79,0.00,,CLR,0.00,299.00,VWS V14.00,2013-09-26 15:05:00,
2013-09-26 10:07:00,67.7,61.0,29.89,South,188,0.0,5.0,79,0.00,,CLR,0.00,77.00,VWS V14.00,2013-09-26 15:07:00,
2013-09-26 10:08:00,67.7,61.0,29.89,SSE,158,5.0,5.0,79,0.00,,CLR,0.00,79.00,VWS V14.00,2013-09-26 15:08:00,
2013-09-26 10:10:00,67.7,61.0,29.90,South,190,0.0,2.0,79,0.00,,CLR,0.00,93.00,VWS V14.00,2013-09-26 15:10:00,
2013-09-26 10:12:00,67.7,61.0,29.89,SW,217,0.0,5.0,79,0.00,,CLR,0.00,234.00,VWS V14.00,2013-09-26 15:12:00,
2013-09-26 10:13:00,67.8,61.1,29.90,SSW,192,1.0,2.0,79,0.00,,CLR,0.00,104.00,VWS V14.00,2013-09-26 15:13:00,
2013-09-26 10:15:00,67.8,61.1,29.89,South,185,0.0,4.0,79,0.00,,CLR,0.00,214.00,VWS V14.00,2013-09-26 15:15:00,
2013-09-26 10:16:00,67.9,61.2,29.89,South,173,0.0,4.0,79,0.00,,CLR,0.00,125.00,VWS V14.00,2013-09-26 15:16:00,
2013-09-26 10:17:00,68.0,61.2,29.89,South,188,4.0,4.0,79,0.00,,CLR,0.00,105.00,VWS V14.00,2013-09-26 15:17:00,
2013-09-26 10:19:00,68.0,60.9,29.89,South,186,2.0,4.0,78,0.00,,CLR,0.00,107.00,VWS V14.00,2013-09-26 15:19:00,
2013-09-26 10:20:00,68.1,61.3,29.89,South,173,0.0,4.0,79,0.00,,CLR,0.00,67.00,VWS V14.00,2013-09-26 15:20:00,
2013-09-26 10:21:00,68.2,61.5,29.89,South,177,0.0,6.0,79,0.00,,CLR,0.00,76.00,VWS V14.00,2013-09-26 15:21:00,
2013-09-26 10:23:00,68.3,61.5,29.89,South,169,4.0,6.0,79,0.00,,CLR,0.00,98.00,VWS V14.00,2013-09-26 15:23:00,
2013-09-26 10:24:00,68.4,61.6,29.89,South,178,2.0,6.0,79,0.00,,CLR,0.00,243.00,VWS V14.00,2013-09-26 15:24:00,
2013-09-26 10:25:00,68.5,61.7,29.89,South,170,2.0,6.0,79,0.00,,CLR,0.00,243.00,VWS V14.00,2013-09-26 15:25:00,
2013-09-26 10:26:00,68.6,61.5,29.89,South,178,0.0,6.0,78,0.00,,CLR,0.00,246.00,VWS V14.00,2013-09-26 15:26:00,
2013-09-26 10:28:00,68.7,61.6,29.89,WSW,240,3.0,6.0,78,0.00,,CLR,0.00,114.00,VWS V14.00,2013-09-26 15:28:00,
2013-09-26 10:30:00,68.8,61.7,29.89,SSE,153,0.0,5.0,78,0.00,,CLR,0.00,69.00,VWS V14.00,2013-09-26 15:30:00,
2013-09-26 10:31:00,68.8,61.7,29.89,SSE,157,0.0,5.0,78,0.00,,CLR,0.00,74.00,VWS V14.00,2013-09-26 15:31:00,
2013-09-26 10:33:00,68.9,61.8,29.89,SSW,192,0.0,5.0,78,0.00,,CLR,0.00,63.00,VWS V14.00,2013-09-26 15:33:00,
2013-09-26 10:35:00,69.1,62.0,29.89,South,175,0.0,5.0,78,0.00,,CLR,0.00,65.00,VWS V14.00,2013-09-26 15:35:00,
2013-09-26 10:36:00,69.1,62.0,29.89,South,181,2.0,5.0,78,0.00,,CLR,0.00,69.00,VWS V14.00,2013-09-26 15:36:00,
2013-09-26 10:37:00,69.2,61.7,29.89,South,179,0.0,7.0,77,0.00,,CLR,0.00,67.00,VWS V14.00,2013-09-26 15:37:00,
2013-09-26 10:38:00,69.1,61.6,29.89,South,180,1.0,7.0,77,0.00,,CLR,0.00,65.00,VWS V14.00,2013-09-26 15:38:00,
2013-09-26 10:40:00,69.2,62.1,29.89,South,173,2.0,5.0,78,0.00,,CLR,0.00,69.00,VWS V14.00,2013-09-26 15:40:00,
2013-09-26 10:41:00,69.2,61.7,29.89,South,173,2.0,5.0,77,0.00,,CLR,0.00,69.00,VWS V14.00,2013-09-26 15:41:00,
2013-09-26 10:42:00,69.3,61.8,29.89,South,188,0.0,6.0,77,0.00,,CLR,0.00,67.00,VWS V14.00,2013-09-26 15:42:00,
2013-09-26 10:43:00,69.3,62.2,29.89,SSW,203,1.0,6.0,78,0.00,,CLR,0.00,65.00,VWS V14.00,2013-09-26 15:43:00,
2013-09-26 10:45:00,69.3,62.2,29.89,SSW,198,0.0,6.0,78,0.00,,CLR,0.00,65.00,VWS V14.00,2013-09-26 15:45:00,
2013-09-26 10:46:00,69.4,61.9,29.89,South,180,3.0,4.0,77,0.00,,CLR,0.00,65.00,VWS V14.00,2013-09-26 15:46:00,
2013-09-26 10:47:00,69.5,62.0,29.89,South,187,2.0,5.0,77,0.00,,CLR,0.00,65.00,VWS V14.00,2013-09-26 15:47:00,
2013-09-26 10:48:00,69.6,62.1,29.89,South,190,0.0,5.0,77,0.00,,CLR,0.00,65.00,VWS V14.00,2013-09-26 15:48:00,
2013-09-26 10:50:00,69.5,62.0,29.89,South,190,0.0,5.0,77,0.00,,CLR,0.00,65.00,VWS V14.00,2013-09-26 15:50:00,
2013-09-26 10:51:00,69.8,62.3,29.89,South,169,1.0,4.0,77,0.00,,CLR,0.00,65.00,VWS V14.00,2013-09-26 15:51:00,
2013-09-26 10:52:00,69.9,62.4,29.89,ESE,118,5.0,5.0,77,0.00,,CLR,0.00,63.00,VWS V14.00,2013-09-26 15:52:00,
2013-09-26 10:53:00,70.0,62.5,29.89,SSW,196,0.0,5.0,77,0.00,,CLR,0.00,63.00,VWS V14.00,2013-09-26 15:53:00,
2013-09-26 10:55:00,70.0,62.5,29.89,SSW,195,0.0,5.0,77,0.00,,CLR,0.00,63.00,VWS V14.00,2013-09-26 15:55:00,
2013-09-26 10:56:00,70.2,62.7,29.89,South,180,2.0,5.0,77,0.00,,CLR,0.00,65.00,VWS V14.00,2013-09-26 15:56:00,
2013-09-26 10:57:00,70.3,62.4,29.89,South,179,1.0,5.0,76,0.00,,CLR,0.00,63.00,VWS V14.00,2013-09-26 15:57:00,
2013-09-26 10:58:00,70.4,62.8,29.89,South,179,1.0,5.0,77,0.00,,CLR,0.00,67.00,VWS V14.00,2013-09-26 15:58:00,
2013-09-26 11:00:00,70.4,62.8,29.89,South,179,1.0,5.0,77,0.00,,CLR,0.00,67.00,VWS V14.00,2013-09-26 16:00:00,
2013-09-26 11:02:00,70.6,62.7,29.89,South,187,1.0,5.0,76,0.00,,CLR,0.00,65.00,VWS V14.00,2013-09-26 16:02:00,
2013-09-26 11:03:00,70.6,62.7,29.88,South,169,4.0,5.0,76,0.00,,CLR,0.00,65.00,VWS V14.00,2013-09-26 16:03:00,
2013-09-26 11:05:00,70.6,62.7,29.88,South,169,4.0,5.0,76,0.00,,CLR,0.00,65.00,VWS V14.00,2013-09-26 16:05:00,
2013-09-26 11:07:00,70.9,63.0,29.89,SE,143,4.0,7.0,76,0.00,,CLR,0.00,69.00,VWS V14.00,2013-09-26 16:07:00,
2013-09-26 11:08:00,71.0,63.1,29.89,ESE,112,1.0,7.0,76,0.00,,CLR,0.00,79.00,VWS V14.00,2013-09-26 16:08:00,
2013-09-26 11:10:00,71.0,63.1,29.89,ESE,107,6.0,11.0,76,0.00,,CLR,0.00,79.00,VWS V14.00,2013-09-26 16:10:00,
2013-09-26 11:12:00,71.2,63.3,29.89,SSE,159,0.0,7.0,76,0.00,,CLR,0.00,72.00,VWS V14.00,2013-09-26 16:12:00,
2013-09-26 11:13:00,71.3,63.0,29.89,SSE,160,0.0,7.0,75,0.00,,CLR,0.00,67.00,VWS V14.00,2013-09-26 16:13:00,
2013-09-26 11:15:00,71.3,63.0,29.89,SSE,160,1.0,7.0,75,0.00,,CLR,0.00,67.00,VWS V14.00,2013-09-26 16:15:00,
2013-09-26 11:17:00,71.6,63.3,29.88,SSE,155,4.0,6.0,75,0.00,,CLR,0.00,69.00,VWS V14.00,2013-09-26 16:17:00,
2013-09-26 11:18:00,71.6,63.3,29.88,South,172,1.0,6.0,75,0.00,,CLR,0.00,70.00,VWS V14.00,2013-09-26 16:18:00,
2013-09-26 11:20:00,71.6,63.3,29.88,South,172,0.0,6.0,75,0.00,,CLR,0.00,70.00,VWS V14.00,2013-09-26 16:20:00,
2013-09-26 11:22:00,72.0,64.0,29.89,South,182,1.0,5.0,76,0.00,,CLR,0.00,114.00,VWS V14.00,2013-09-26 16:22:00,
2013-09-26 11:23:00,72.1,63.8,29.88,SSE,159,0.0,0.0,75,0.00,,CLR,0.00,113.00,VWS V14.00,2013-09-26 16:23:00,
2013-09-26 11:25:00,72.1,63.8,29.88,SSE,159,0.0,5.0,75,0.00,,CLR,0.00,88.00,VWS V14.00,2013-09-26 16:25:00,
2013-09-26 11:27:00,72.4,63.7,29.88,SSE,159,0.0,4.0,74,0.00,,CLR,0.00,74.00,VWS V14.00,2013-09-26 16:27:00,
2013-09-26 11:28:00,72.4,63.7,29.88,SE,133,1.0,4.0,74,0.00,,CLR,0.00,72.00,VWS V14.00,2013-09-26 16:28:00,
2013-09-26 11:29:00,72.5,63.8,29.88,SE,141,2.0,5.0,74,0.00,,CLR,0.00,72.00,VWS V14.00,2013-09-26 16:29:00,
2013-09-26 11:30:00,72.4,63.7,29.88,SSE,155,1.0,4.0,74,0.00,,CLR,0.00,72.00,VWS V14.00,2013-09-26 16:30:00,
2013-09-26 11:32:00,72.7,63.9,29.88,WSW,253,0.0,6.0,74,0.00,,CLR,0.00,88.00,VWS V14.00,2013-09-26 16:32:00,
2013-09-26 11:33:00,72.8,64.0,29.88,South,177,0.0,0.0,74,0.00,,CLR,0.00,74.00,VWS V14.00,2013-09-26 16:33:00,
2013-09-26 11:34:00,72.9,64.1,29.88,South,185,2.0,7.0,74,0.00,,CLR,0.00,97.00,VWS V14.00,2013-09-26 16:34:00,
2013-09-26 11:35:00,72.8,64.0,29.88,South,178,0.0,6.0,74,0.00,,CLR,0.00,74.00,VWS V14.00,2013-09-26 16:35:00,
2013-09-26 11:37:00,73.1,63.9,29.88,South,170,2.0,8.0,73,0.00,,CLR,0.00,120.00,VWS V14.00,2013-09-26 16:37:00,
2013-09-26 11:38:00,73.1,63.9,29.88,SSE,163,4.0,6.0,73,0.00,,CLR,0.00,109.00,VWS V14.00,2013-09-26 16:38:00,
2013-09-26 11:39:00,73.2,64.0,29.88,South,190,0.0,6.0,73,0.00,,CLR,0.00,74.00,VWS V14.00,2013-09-26 16:39:00,
2013-09-26 11:40:00,73.1,63.9,29.88,ESE,112,6.0,8.0,73,0.00,,CLR,0.00,109.00,VWS V14.00,2013-09-26 16:40:00,
2013-09-26 11:43:00,73.6,64.4,29.88,South,181,3.0,6.0,73,0.00,,CLR,0.00,74.00,VWS V14.00,2013-09-26 16:43:00,
2013-09-26 11:44:00,73.7,64.5,29.88,SSW,207,3.0,4.0,73,0.00,,CLR,0.00,77.00,VWS V14.00,2013-09-26 16:44:00,
2013-09-26 11:45:00,73.6,64.4,29.88,SSW,194,0.0,6.0,73,0.00,,CLR,0.00,77.00,VWS V14.00,2013-09-26 16:45:00,
2013-09-26 11:48:00,74.0,64.8,29.88,SW,222,3.0,5.0,73,0.00,,CLR,0.00,95.00,VWS V14.00,2013-09-26 16:48:00,
2013-09-26 11:49:00,74.1,64.9,29.88,SW,216,1.0,2.0,73,0.00,,CLR,0.00,127.00,VWS V14.00,2013-09-26 16:49:00,
2013-09-26 11:50:00,74.0,64.8,29.88,SW,226,2.0,5.0,73,0.00,,CLR,0.00,95.00,VWS V14.00,2013-09-26 16:50:00,
2013-09-26 11:53:00,74.5,64.9,29.87,SE,137,4.0,5.0,72,0.00,,CLR,0.00,77.00,VWS V14.00,2013-09-26 16:53:00,
2013-09-26 11:54:00,74.5,64.9,29.87,SSE,148,0.0,4.0,72,0.00,,CLR,0.00,77.00,VWS V14.00,2013-09-26 16:54:00,
2013-09-26 11:55:00,74.5,64.9,29.87,SE,137,4.0,5.0,72,0.00,,CLR,0.00,77.00,VWS V14.00,2013-09-26 16:55:00,
2013-09-26 11:58:00,74.9,64.5,29.87,SSW,194,2.0,4.0,70,0.00,,CLR,0.00,83.00,VWS V14.00,2013-09-26 16:58:00,
2013-09-26 11:59:00,74.9,64.9,29.87,SSW,205,3.0,6.0,71,0.00,,CLR,0.00,137.00,VWS V14.00,2013-09-26 16:59:00,
2013-09-26 12:00:00,75.0,65.0,29.87,SSW,198,1.0,6.0,71,0.00,,CLR,0.00,137.00,VWS V14.00,2013-09-26 17:00:00,
2013-09-26 12:04:00,75.5,65.4,29.87,WSW,238,3.0,6.0,71,0.00,,CLR,0.00,77.00,VWS V14.00,2013-09-26 17:04:00,
2013-09-26 12:05:00,75.5,65.0,29.87,SW,233,0.0,6.0,70,0.00,,CLR,0.00,77.00,VWS V14.00,2013-09-26 17:05:00,
2013-09-26 12:09:00,75.9,65.0,29.87,South,182,3.0,6.0,69,0.00,,CLR,0.00,83.00,VWS V14.00,2013-09-26 17:09:00,
2013-09-26 12:10:00,75.9,65.0,29.87,South,179,2.0,6.0,69,0.00,,CLR,0.00,83.00,VWS V14.00,2013-09-26 17:10:00,
2013-09-26 12:15:00,76.3,65.4,29.86,SE,138,2.0,5.0,69,0.00,,CLR,0.00,84.00,VWS V14.00,2013-09-26 17:15:00,
2013-09-26 12:16:00,76.4,65.5,29.86,South,175,5.0,5.0,69,0.00,,CLR,0.00,93.00,VWS V14.00,2013-09-26 17:16:00,
2013-09-26 12:20:00,76.7,64.9,29.86,South,171,1.0,7.0,67,0.00,,CLR,0.00,162.00,VWS V14.00,2013-09-26 17:20:00,
2013-09-26 12:21:00,76.7,65.3,29.86,South,171,0.0,7.0,68,0.00,,CLR,0.00,98.00,VWS V14.00,2013-09-26 17:21:00,
2013-09-26 12:25:00,77.0,64.8,29.86,SSW,211,1.0,9.0,66,0.00,,CLR,0.00,183.00,VWS V14.00,2013-09-26 17:25:00,
2013-09-26 12:26:00,77.0,64.3,29.86,South,190,2.0,9.0,65,0.00,,CLR,0.00,183.00,VWS V14.00,2013-09-26 17:26:00,
2013-09-26 12:30:00,77.3,64.6,29.86,SSW,198,1.0,8.0,65,0.00,,CLR,0.00,81.00,VWS V14.00,2013-09-26 17:30:00,
2013-09-26 12:31:00,77.3,65.1,29.86,SSW,206,3.0,8.0,66,0.00,,CLR,0.00,84.00,VWS V14.00,2013-09-26 17:31:00,
2013-09-26 12:35:00,77.6,65.3,29.86,South,186,5.0,7.0,66,0.00,,CLR,0.00,86.00,VWS V14.00,2013-09-26 17:35:00,
2013-09-26 12:36:00,77.6,65.3,29.86,South,186,2.0,7.0,66,0.00,,CLR,0.00,86.00,VWS V14.00,2013-09-26 17:36:00,
2013-09-26 12:37:00,77.7,65.4,29.86,South,186,1.0,7.0,66,0.00,,CLR,0.00,81.00,VWS V14.00,2013-09-26 17:37:00,
2013-09-26 12:40:00,77.9,65.2,29.86,SSW,192,2.0,6.0,65,0.00,,CLR,0.00,83.00,VWS V14.00,2013-09-26 17:40:00,
2013-09-26 12:41:00,78.0,65.3,29.86,SW,217,3.0,6.0,65,0.00,,CLR,0.00,79.00,VWS V14.00,2013-09-26 17:41:00,
2013-09-26 12:42:00,78.0,64.8,29.86,South,173,0.0,7.0,64,0.00,,CLR,0.00,81.00,VWS V14.00,2013-09-26 17:42:00,
2013-09-26 12:45:00,78.0,64.8,29.86,WSW,237,3.0,7.0,64,0.00,,CLR,0.00,79.00,VWS V14.00,2013-09-26 17:45:00,
2013-09-26 12:46:00,78.3,65.1,29.86,South,186,1.0,8.0,64,0.00,,CLR,0.00,102.00,VWS V14.00,2013-09-26 17:46:00,
2013-09-26 12:47:00,78.4,65.2,29.86,South,171,2.0,10.0,64,0.00,,CLR,0.00,81.00,VWS V14.00,2013-09-26 17:47:00,
2013-09-26 12:50:00,78.4,64.8,29.86,SSW,196,5.0,10.0,63,0.00,,CLR,0.00,123.00,VWS V14.00,2013-09-26 17:50:00,
2013-09-26 12:51:00,78.4,64.3,29.86,SSE,165,6.0,8.0,62,0.00,,CLR,0.00,352.00,VWS V14.00,2013-09-26 17:51:00,
2013-09-26 12:52:00,78.4,64.8,29.86,SSE,165,5.0,8.0,63,0.00,,CLR,0.00,378.00,VWS V14.00,2013-09-26 17:52:00,
2013-09-26 12:55:00,78.4,64.3,29.86,West,273,3.0,8.0,62,0.00,,CLR,0.00,114.00,VWS V14.00,2013-09-26 17:55:00,
2013-09-26 12:56:00,78.6,64.5,29.86,SW,221,0.0,8.0,62,0.00,,CLR,0.00,81.00,VWS V14.00,2013-09-26 17:56:00,
2013-09-26 12:57:00,78.7,64.6,29.86,SSW,211,2.0,12.0,62,0.00,,CLR,0.00,81.00,VWS V14.00,2013-09-26 17:57:00,
2013-09-26 13:00:00,78.8,64.7,29.85,SSW,207,3.0,12.0,62,0.00,,CLR,0.00,81.00,VWS V14.00,2013-09-26 18:00:00,
2013-09-26 13:01:00,78.9,64.3,29.85,SW,218,5.0,9.0,61,0.00,,CLR,0.00,413.00,VWS V14.00,2013-09-26 18:01:00,
2013-09-26 13:02:00,79.0,64.4,29.86,South,187,8.0,9.0,61,0.00,,CLR,0.00,675.00,VWS V14.00,2013-09-26 18:02:00,
2013-09-26 13:03:00,79.0,64.4,29.86,South,179,7.0,9.0,61,0.00,,CLR,0.00,675.00,VWS V14.00,2013-09-26 18:03:00,
2013-09-26 13:05:00,79.1,64.5,29.86,SW,216,0.0,9.0,61,0.00,,CLR,0.00,693.00,VWS V14.00,2013-09-26 18:05:00,
2013-09-26 13:06:00,79.3,65.2,29.85,SW,214,4.0,5.0,62,0.00,,CLR,0.00,701.00,VWS V14.00,2013-09-26 18:06:00,
2013-09-26 13:07:00,79.5,64.9,29.85,SSW,192,3.0,6.0,61,0.00,,CLR,0.00,696.00,VWS V14.00,2013-09-26 18:07:00,
2013-09-26 13:08:00,79.5,64.9,29.85,SSW,192,4.0,6.0,61,0.00,,CLR,0.00,694.00,VWS V14.00,2013-09-26 18:08:00,
2013-09-26 13:10:00,79.6,65.4,29.85,SSW,194,0.0,6.0,62,0.00,,CLR,0.00,694.00,VWS V14.00,2013-09-26 18:10:00,
2013-09-26 13:11:00,79.6,64.5,29.85,SSW,192,0.0,4.0,60,0.00,,CLR,0.00,696.00,VWS V14.00,2013-09-26 18:11:00,
2013-09-26 13:12:00,79.7,64.6,29.85,South,173,1.0,7.0,60,0.00,,CLR,0.00,691.00,VWS V14.00,2013-09-26 18:12:00,
2013-09-26 13:13:00,79.7,64.6,29.85,South,189,3.0,7.0,60,0.00,,CLR,0.00,691.00,VWS V14.00,2013-09-26 18:13:00,
2013-09-26 13:15:00,79.7,65.1,29.85,South,191,3.0,7.0,61,0.00,,CLR,0.00,691.00,VWS V14.00,2013-09-26 18:15:00,
2013-09-26 13:16:00,79.8,64.7,29.85,SSW,196,2.0,5.0,60,0.00,,CLR,0.00,698.00,VWS V14.00,2013-09-26 18:16:00,
2013-09-26 13:17:00,79.9,64.8,29.85,SSE,165,2.0,5.0,60,0.00,,CLR,0.00,696.00,VWS V14.00,2013-09-26 18:17:00,
2013-09-26 13:18:00,79.9,64.8,29.85,SSW,207,4.0,5.0,60,0.00,,CLR,0.00,701.00,VWS V14.00,2013-09-26 18:18:00,
2013-09-26 13:20:00,79.9,64.8,29.85,South,185,6.0,6.0,60,0.00,,CLR,0.00,701.00,VWS V14.00,2013-09-26 18:20:00,
2013-09-26 13:21:00,80.2,65.1,29.85,SSW,200,0.0,6.0,60,0.00,,CLR,0.00,696.00,VWS V14.00,2013-09-26 18:21:00,
2013-09-26 13:22:00,80.3,65.2,29.85,SW,215,0.0,6.0,60,0.00,,CLR,0.00,691.00,VWS V14.00,2013-09-26 18:22:00,
2013-09-26 13:23:00,80.3,65.2,29.85,South,175,1.0,6.0,60,0.00,,CLR,0.00,689.00,VWS V14.00,2013-09-26 18:23:00,
2013-09-26 13:25:00,80.3,65.2,29.85,South,190,3.0,6.0,60,0.00,,CLR,0.00,689.00,VWS V14.00,2013-09-26 18:25:00,
2013-09-26 13:26:00,80.5,65.3,29.85,SW,234,0.0,6.0,60,0.00,,CLR,0.00,694.00,VWS V14.00,2013-09-26 18:26:00,
2013-09-26 13:28:00,80.5,65.3,29.85,SSE,156,0.0,6.0,60,0.00,,CLR,0.00,694.00,VWS V14.00,2013-09-26 18:28:00,
2013-09-26 13:29:00,80.5,65.3,29.85,South,180,2.0,2.0,60,0.00,,CLR,0.00,694.00,VWS V14.00,2013-09-26 18:29:00,
2013-09-26 13:30:00,80.5,65.3,29.85,South,180,1.0,6.0,60,0.00,,CLR,0.00,693.00,VWS V14.00,2013-09-26 18:30:00,
2013-09-26 13:32:00,80.6,65.0,29.84,West,259,0.0,5.0,59,0.00,,CLR,0.00,696.00,VWS V14.00,2013-09-26 18:32:00,
2013-09-26 13:33:00,80.7,65.1,29.84,SSW,198,1.0,5.0,59,0.00,,CLR,0.00,694.00,VWS V14.00,2013-09-26 18:33:00,
2013-09-26 13:34:00,80.7,64.6,29.84,SE,144,6.0,6.0,58,0.00,,CLR,0.00,694.00,VWS V14.00,2013-09-26 18:34:00,
2013-09-26 13:35:00,80.7,65.1,29.84,SSW,198,1.0,5.0,59,0.00,,CLR,0.00,694.00,VWS V14.00,2013-09-26 18:35:00,
2013-09-26 13:37:00,80.9,64.2,29.84,South,184,3.0,9.0,57,0.00,,CLR,0.00,686.00,VWS V14.00,2013-09-26 18:37:00,
2013-09-26 13:38:00,80.9,64.8,29.84,South,178,1.0,7.0,58,0.00,,CLR,0.00,687.00,VWS V14.00,2013-09-26 18:38:00,
2013-09-26 13:39:00,80.9,64.8,29.84,South,178,2.0,7.0,58,0.00,,CLR,0.00,687.00,VWS V14.00,2013-09-26 18:39:00,
2013-09-26 13:40:00,80.9,64.8,29.84,SW,231,7.0,9.0,58,0.00,,CLR,0.00,687.00,VWS V14.00,2013-09-26 18:40:00,
2013-09-26 13:42:00,81.0,64.3,29.84,South,173,0.0,7.0,57,0.00,,CLR,0.00,686.00,VWS V14.00,2013-09-26 18:42:00,
2013-09-26 13:44:00,80.9,64.2,29.84,SW,215,1.0,1.0,57,0.00,,CLR,0.00,684.00,VWS V14.00,2013-09-26 18:44:00,
2013-09-26 13:45:00,81.0,64.3,29.84,South,182,4.0,5.0,57,0.00,,CLR,0.00,686.00,VWS V14.00,2013-09-26 18:45:00,
2013-09-26 13:47:00,81.1,63.4,29.84,South,173,6.0,7.0,55,0.00,,CLR,0.00,684.00,VWS V14.00,2013-09-26 18:47:00,
2013-09-26 13:49:00,81.1,63.4,29.84,South,187,2.0,7.0,55,0.00,,CLR,0.00,684.00,VWS V14.00,2013-09-26 18:49:00,
2013-09-26 13:50:00,81.1,63.4,29.84,South,191,3.0,8.0,55,0.00,,CLR,0.00,686.00,VWS V14.00,2013-09-26 18:50:00,
2013-09-26 13:51:00,81.2,63.5,29.83,SW,219,3.0,7.0,55,0.00,,CLR,0.00,684.00,VWS V14.00,2013-09-26 18:51:00,
2013-09-26 13:52:00,81.3,63.6,29.83,SSE,167,5.0,8.0,55,0.00,,CLR,0.00,680.00,VWS V14.00,2013-09-26 18:52:00,
2013-09-26 13:54:00,81.3,63.6,29.83,ESE,123,2.0,2.0,55,0.00,,CLR,0.00,682.00,VWS V14.00,2013-09-26 18:54:00,
2013-09-26 13:55:00,81.3,63.6,29.83,SSW,202,2.0,8.0,55,0.00,,CLR,0.00,679.00,VWS V14.00,2013-09-26 18:55:00,
2013-09-26 13:56:00,81.3,64.6,29.83,SSW,202,2.0,3.0,57,0.00,,CLR,0.00,677.00,VWS V14.00,2013-09-26 18:56:00,
2013-09-26 13:57:00,81.4,63.7,29.83,SSW,195,8.0,9.0,55,0.00,,CLR,0.00,673.00,VWS V14.00,2013-09-26 18:57:00,
2013-09-26 13:59:00,81.3,63.1,29.83,SSE,164,2.0,5.0,54,0.00,,CLR,0.00,675.00,VWS V14.00,2013-09-26 18:59:00,
2013-09-26 14:00:00,81.3,63.6,29.83,SSE,161,0.0,5.0,55,0.00,,CLR,0.00,675.00,VWS V14.00,2013-09-26 19:00:00,
2013-09-26 14:01:00,81.3,63.6,29.83,South,178,0.0,5.0,55,0.00,,CLR,0.00,673.00,VWS V14.00,2013-09-26 19:01:00,
2013-09-26 14:03:00,81.3,64.1,29.83,South,175,0.0,5.0,56,0.00,,CLR,0.00,670.00,VWS V14.00,2013-09-26 19:03:00,
2013-09-26 14:04:00,81.4,64.2,29.83,SW,215,3.0,4.0,56,0.00,,CLR,0.00,666.00,VWS V14.00,2013-09-26 19:04:00,
2013-09-26 14:05:00,81.4,64.7,29.83,South,175,0.0,4.0,57,0.00,,CLR,0.00,666.00,VWS V14.00,2013-09-26 19:05:00,
2013-09-26 14:07:00,81.5,64.8,29.83,SSE,153,0.0,5.0,57,0.00,,CLR,0.00,663.00,VWS V14.00,2013-09-26 19:07:00,
2013-09-26 14:08:00,81.5,64.8,29.83,SSE,161,0.0,5.0,57,0.00,,CLR,0.00,663.00,VWS V14.00,2013-09-26 19:08:00,
2013-09-26 14:09:00,81.5,64.8,29.83,SSW,192,2.0,5.0,57,0.00,,CLR,0.00,663.00,VWS V14.00,2013-09-26 19:09:00,
2013-09-26 14:10:00,81.6,64.4,29.83,SSW,192,2.0,5.0,56,0.00,,CLR,0.00,661.00,VWS V14.00,2013-09-26 19:10:00,
2013-09-26 14:12:00,81.6,64.9,29.83,South,171,0.0,6.0,57,0.00,,CLR,0.00,659.00,VWS V14.00,2013-09-26 19:12:00,
2013-09-26 14:13:00,81.7,64.5,29.83,SW,234,2.0,6.0,56,0.00,,CLR,0.00,656.00,VWS V14.00,2013-09-26 19:13:00,
2013-09-26 14:14:00,81.8,64.6,29.83,SSE,155,1.0,2.0,56,0.00,,CLR,0.00,656.00,VWS V14.00,2013-09-26 19:14:00,
2013-09-26 14:15:00,81.8,64.6,29.83,South,178,0.0,4.0,56,0.00,,CLR,0.00,652.00,VWS V14.00,2013-09-26 19:15:00,
2013-09-26 14:17:00,81.8,64.6,29.83,SSW,197,1.0,6.0,56,0.00,,CLR,0.00,652.00,VWS V14.00,2013-09-26 19:17:00,
2013-09-26 14:18:00,81.8,64.6,29.83,SSW,192,3.0,8.0,56,0.00,,CLR,0.00,652.00,VWS V14.00,2013-09-26 19:18:00,
2013-09-26 14:20:00,81.9,64.2,29.83,SSW,200,0.0,10.0,55,0.00,,CLR,0.00,650.00,VWS V14.00,2013-09-26 19:20:00,
2013-09-26 14:22:00,82.0,64.3,29.83,South,182,2.0,10.0,55,0.00,,CLR,0.00,649.00,VWS V14.00,2013-09-26 19:22:00,
2013-09-26 14:23:00,81.9,63.6,29.83,SSW,204,1.0,10.0,54,0.00,,CLR,0.00,647.00,VWS V14.00,2013-09-26 19:23:00,
2013-09-26 14:25:00,81.9,63.6,29.83,South,191,2.0,7.0,54,0.00,,CLR,0.00,647.00,VWS V14.00,2013-09-26 19:25:00,
2013-09-26 14:27:00,81.9,64.2,29.83,SSE,165,6.0,7.0,55,0.00,,CLR,0.00,643.00,VWS V14.00,2013-09-26 19:27:00,
2013-09-26 14:28:00,81.9,63.1,29.83,South,184,6.0,8.0,53,0.00,,CLR,0.00,643.00,VWS V14.00,2013-09-26 19:28:00,
2013-09-26 14:30:00,81.9,63.6,29.83,SSW,197,4.0,8.0,54,0.00,,CLR,0.00,638.00,VWS V14.00,2013-09-26 19:30:00,
2013-09-26 14:31:00,81.9,63.6,29.83,SSW,207,3.0,9.0,54,0.00,,CLR,0.00,636.00,VWS V14.00,2013-09-26 19:31:00,
2013-09-26 14:32:00,81.8,63.5,29.83,South,173,2.0,9.0,54,0.00,,CLR,0.00,635.00,VWS V14.00,2013-09-26 19:32:00,
2013-09-26 14:33:00,81.9,63.1,29.83,South,172,4.0,6.0,53,0.00,,CLR,0.00,633.00,VWS V14.00,2013-09-26 19:33:00,
2013-09-26 14:35:00,81.9,63.6,29.83,SSW,204,5.0,9.0,54,0.00,,CLR,0.00,629.00,VWS V14.00,2013-09-26 19:35:00,
2013-09-26 14:36:00,81.8,62.5,29.82,SSW,205,1.0,9.0,52,0.00,,CLR,0.00,628.00,VWS V14.00,2013-09-26 19:36:00,
2013-09-26 14:37:00,81.8,63.0,29.82,SSW,201,3.0,9.0,53,0.00,,CLR,0.00,626.00,VWS V14.00,2013-09-26 19:37:00,
2013-09-26 14:38:00,81.8,63.0,29.82,SSW,202,2.0,3.0,53,0.00,,CLR,0.00,626.00,VWS V14.00,2013-09-26 19:38:00,
2013-09-26 14:40:00,81.8,62.5,29.82,South,171,2.0,7.0,52,0.00,,CLR,0.00,624.00,VWS V14.00,2013-09-26 19:40:00,
2013-09-26 14:42:00,81.9,64.2,29.82,SW,233,2.0,7.0,55,0.00,,CLR,0.00,621.00,VWS V14.00,2013-09-26 19:42:00,
2013-09-26 14:43:00,82.1,64.3,29.82,SSW,199,0.0,1.0,55,0.00,,CLR,0.00,615.00,VWS V14.00,2013-09-26 19:43:00,
2013-09-26 14:45:00,82.3,64.0,29.82,South,170,4.0,4.0,54,0.00,,CLR,0.00,613.00,VWS V14.00,2013-09-26 19:45:00,
2013-09-26 14:47:00,82.5,64.2,29.82,SSW,194,0.0,10.0,54,0.00,,CLR,0.00,610.00,VWS V14.00,2013-09-26 19:47:00,
2013-09-26 14:48:00,82.5,63.7,29.82,SW,234,4.0,10.0,53,0.00,,CLR,0.00,612.00,VWS V14.00,2013-09-26 19:48:00,
2013-09-26 14:49:00,82.6,63.8,29.82,SW,236,1.0,3.0,53,0.00,,CLR,0.00,606.00,VWS V14.00,2013-09-26 19:49:00,
2013-09-26 14:50:00,82.7,63.8,29.82,SSW,193,1.0,3.0,53,0.00,,CLR,0.00,601.00,VWS V14.00,2013-09-26 19:50:00,
2013-09-26 14:52:00,82.7,63.8,29.82,South,175,1.0,5.0,53,0.00,,CLR,0.00,603.00,VWS V14.00,2013-09-26 19:52:00,
2013-09-26 14:53:00,82.8,63.9,29.82,South,175,0.0,5.0,53,0.00,,CLR,0.00,599.00,VWS V14.00,2013-09-26 19:53:00,
2013-09-26 14:54:00,82.8,63.9,29.82,SSW,198,0.0,1.0,53,0.00,,CLR,0.00,594.00,VWS V14.00,2013-09-26 19:54:00,
2013-09-26 14:55:00,82.9,63.5,29.82,ENE,78,0.0,4.0,52,0.00,,CLR,0.00,589.00,VWS V14.00,2013-09-26 19:55:00,
2013-09-26 14:57:00,82.9,63.5,29.82,South,176,2.0,4.0,52,0.00,,CLR,0.00,585.00,VWS V14.00,2013-09-26 19:57:00,
2013-09-26 14:58:00,82.7,63.3,29.82,South,188,1.0,4.0,52,0.00,,CLR,0.00,580.00,VWS V14.00,2013-09-26 19:58:00,
2013-09-26 14:59:00,82.6,62.7,29.82,SW,215,2.0,4.0,51,0.00,,CLR,0.00,585.00,VWS V14.00,2013-09-26 19:59:00,
2013-09-26 15:00:00,82.5,63.1,29.82,South,181,1.0,6.0,52,0.00,,CLR,0.00,580.00,VWS V14.00,2013-09-26 20:00:00,
2013-09-26 15:02:00,82.4,63.0,29.82,South,173,1.0,6.0,52,0.00,,CLR,0.00,573.00,VWS V14.00,2013-09-26 20:02:00,
2013-09-26 15:03:00,82.3,63.5,29.82,SW,223,1.0,1.0,53,0.00,,CLR,0.00,573.00,VWS V14.00,2013-09-26 20:03:00,
2013-09-26 15:04:00,82.3,63.5,29.82,South,185,4.0,4.0,53,0.00,,CLR,0.00,570.00,VWS V14.00,2013-09-26 20:04:00,
2013-09-26 15:05:00,82.3,62.9,29.82,SW,221,0.0,6.0,52,0.00,,CLR,0.00,573.00,VWS V14.00,2013-09-26 20:05:00,
2013-09-26 15:06:00,82.3,62.9,29.82,SSW,206,2.0,6.0,52,0.00,,CLR,0.00,566.00,VWS V14.00,2013-09-26 20:06:00,
2013-09-26 15:08:00,82.3,63.5,29.82,SE,138,6.0,6.0,53,0.00,,CLR,0.00,566.00,VWS V14.00,2013-09-26 20:08:00,
2013-09-26 15:09:00,82.4,63.0,29.82,SSE,166,4.0,5.0,52,0.00,,CLR,0.00,564.00,VWS V14.00,2013-09-26 20:09:00,
2013-09-26 15:10:00,82.4,63.6,29.82,SSE,156,2.0,6.0,53,0.00,,CLR,0.00,564.00,VWS V14.00,2013-09-26 20:10:00,
2013-09-26 15:11:00,82.2,63.4,29.82,SSE,148,4.0,6.0,53,0.00,,CLR,0.00,557.00,VWS V14.00,2013-09-26 20:11:00,
2013-09-26 15:13:00,82.2,62.8,29.82,SSE,157,1.0,1.0,52,0.00,,CLR,0.00,557.00,VWS V14.00,2013-09-26 20:13:00,
2013-09-26 15:14:00,82.2,62.8,29.82,SSE,157,0.0,1.0,52,0.00,,CLR,0.00,557.00,VWS V14.00,2013-09-26 20:14:00,
2013-09-26 15:15:00,82.2,62.8,29.82,SSE,157,1.0,6.0,52,0.00,,CLR,0.00,557.00,VWS V14.00,2013-09-26 20:15:00,
2013-09-26 15:16:00,82.2,63.4,29.82,SSW,205,0.0,4.0,53,0.00,,CLR,0.00,552.00,VWS V14.00,2013-09-26 20:16:00,
2013-09-26 15:19:00,82.5,63.1,29.82,South,179,5.0,7.0,52,0.00,,CLR,0.00,548.00,VWS V14.00,2013-09-26 20:19:00,
2013-09-26 15:20:00,82.6,62.7,29.82,SSW,209,1.0,7.0,51,0.00,,CLR,0.00,545.00,VWS V14.00,2013-09-26 20:20:00,
2013-09-26 15:21:00,82.7,62.8,29.82,SSE,159,1.0,7.0,51,0.00,,CLR,0.00,543.00,VWS V14.00,2013-09-26 20:21:00,
2013-09-26 15:24:00,82.8,62.8,29.82,South,186,2.0,5.0,51,0.00,,CLR,0.00,538.00,VWS V14.00,2013-09-26 20:24:00,
2013-09-26 15:25:00,82.8,62.3,29.82,South,182,2.0,6.0,50,0.00,,CLR,0.00,538.00,VWS V14.00,2013-09-26 20:25:00,
2013-09-26 15:26:00,82.9,62.9,29.82,SW,236,2.0,6.0,51,0.00,,CLR,0.00,536.00,VWS V14.00,2013-09-26 20:26:00,
2013-09-26 15:29:00,83.1,63.1,29.82,South,171,0.0,1.0,51,0.00,,CLR,0.00,529.00,VWS V14.00,2013-09-26 20:29:00,
2013-09-26 15:30:00,83.1,63.1,29.82,South,174,1.0,6.0,51,0.00,,CLR,0.00,526.00,VWS V14.00,2013-09-26 20:30:00,
2013-09-26 15:32:00,83.0,63.6,29.82,South,187,1.0,6.0,52,0.00,,CLR,0.00,522.00,VWS V14.00,2013-09-26 20:32:00,
2013-09-26 15:34:00,82.9,62.9,29.81,SSE,167,1.0,2.0,51,0.00,,CLR,0.00,517.00,VWS V14.00,2013-09-26 20:34:00,
2013-09-26 15:35:00,82.9,63.5,29.81,SE,141,1.0,6.0,52,0.00,,CLR,0.00,519.00,VWS V14.00,2013-09-26 20:35:00,
2013-09-26 15:36:00,82.8,63.4,29.81,South,182,0.0,6.0,52,0.00,,CLR,0.00,512.00,VWS V14.00,2013-09-26 20:36:00,
2013-09-26 15:37:00,82.8,63.4,29.81,SSW,193,2.0,6.0,52,0.00,,CLR,0.00,506.00,VWS V14.00,2013-09-26 20:37:00,
2013-09-26 15:39:00,82.9,62.9,29.82,South,175,1.0,11.0,51,0.00,,CLR,0.00,504.00,VWS V14.00,2013-09-26 20:39:00,
2013-09-26 15:40:00,82.9,62.9,29.82,SSE,159,1.0,11.0,51,0.00,,CLR,0.00,504.00,VWS V14.00,2013-09-26 20:40:00,
2013-09-26 15:41:00,82.9,63.5,29.81,SSW,206,2.0,11.0,52,0.00,,CLR,0.00,501.00,VWS V14.00,2013-09-26 20:41:00,
2013-09-26 15:42:00,82.8,63.4,29.81,South,187,0.0,11.0,52,0.00,,CLR,0.00,496.00,VWS V14.00,2013-09-26 20:42:00,
2013-09-26 15:44:00,82.8,63.9,29.81,SSE,147,2.0,2.0,53,0.00,,CLR,0.00,494.00,VWS V14.00,2013-09-26 20:44:00,
2013-09-26 15:45:00,82.8,63.4,29.81,SSE,163,0.0,11.0,52,0.00,,CLR,0.00,496.00,VWS V14.00,2013-09-26 20:45:00,
2013-09-26 15:46:00,82.8,63.4,29.81,SSE,165,0.0,5.0,52,0.00,,CLR,0.00,489.00,VWS V14.00,2013-09-26 20:46:00,
2013-09-26 15:47:00,82.7,63.3,29.81,South,180,0.0,5.0,52,0.00,,CLR,0.00,485.00,VWS V14.00,2013-09-26 20:47:00,
2013-09-26 15:50:00,83.0,63.0,29.81,South,173,0.0,9.0,51,0.00,,CLR,0.00,480.00,VWS V14.00,2013-09-26 20:50:00,
2013-09-26 15:51:00,83.1,63.7,29.81,South,173,1.0,9.0,52,0.00,,CLR,0.00,478.00,VWS V14.00,2013-09-26 20:51:00,
2013-09-26 15:52:00,83.4,63.4,29.81,South,187,0.0,9.0,51,0.00,,CLR,0.00,475.00,VWS V14.00,2013-09-26 20:52:00,
2013-09-26 15:55:00,83.5,64.0,29.81,SSE,167,0.0,4.0,52,0.00,,CLR,0.00,466.00,VWS V14.00,2013-09-26 20:55:00,
2013-09-26 15:57:00,83.5,64.0,29.81,South,178,4.0,4.0,52,0.00,,CLR,0.00,464.00,VWS V14.00,2013-09-26 20:57:00,
2013-09-26 16:00:00,83.5,63.5,29.81,South,175,2.0,5.0,51,0.00,,CLR,0.00,454.00,VWS V14.00,2013-09-26 21:00:00,
2013-09-26 16:02:00,83.3,63.3,29.81,SSW,192,1.0,5.0,51,0.00,,CLR,0.00,448.00,VWS V14.00,2013-09-26 21:02:00,
2013-09-26 16:05:00,83.3,63.9,29.81,South,188,1.0,7.0,52,0.00,,CLR,0.00,350.00,VWS V14.00,2013-09-26 21:05:00,
2013-09-26 16:06:00,83.3,63.9,29.81,SW,225,2.0,7.0,52,0.00,,CLR,0.00,350.00,VWS V14.00,2013-09-26 21:06:00,
2013-09-26 16:07:00,83.3,63.9,29.81,SSW,192,0.0,7.0,52,0.00,,CLR,0.00,432.00,VWS V14.00,2013-09-26 21:07:00,
2013-09-26 16:08:00,83.3,63.9,29.81,South,178,4.0,7.0,52,0.00,,CLR,0.00,431.00,VWS V14.00,2013-09-26 21:08:00,
2013-09-26 16:10:00,83.3,63.9,29.81,South,172,0.0,6.0,52,0.00,,CLR,0.00,425.00,VWS V14.00,2013-09-26 21:10:00,
2013-09-26 16:11:00,83.3,63.3,29.81,South,183,1.0,6.0,51,0.00,,CLR,0.00,424.00,VWS V14.00,2013-09-26 21:11:00,
2013-09-26 16:13:00,83.4,64.0,29.81,South,174,0.0,6.0,52,0.00,,CLR,0.00,422.00,VWS V14.00,2013-09-26 21:13:00,
2013-09-26 16:15:00,83.5,64.0,29.81,SSW,200,1.0,5.0,52,0.00,,CLR,0.00,411.00,VWS V14.00,2013-09-26 21:15:00,
2013-09-26 16:16:00,83.6,63.6,29.81,SE,132,1.0,5.0,51,0.00,,CLR,0.00,410.00,VWS V14.00,2013-09-26 21:16:00,
2013-09-26 16:18:00,83.5,63.5,29.81,SW,219,1.0,6.0,51,0.00,,CLR,0.00,406.00,VWS V14.00,2013-09-26 21:18:00,
2013-09-26 16:20:00,83.5,64.6,29.81,South,186,2.0,4.0,53,0.00,,CLR,0.00,397.00,VWS V14.00,2013-09-26 21:20:00,
2013-09-26 16:21:00,83.5,64.6,29.81,South,172,1.0,4.0,53,0.00,,CLR,0.00,394.00,VWS V14.00,2013-09-26 21:21:00,
2013-09-26 16:23:00,83.4,64.0,29.81,South,181,4.0,7.0,52,0.00,,CLR,0.00,388.00,VWS V14.00,2013-09-26 21:23:00,
2013-09-26 16:25:00,83.4,64.0,29.81,SSW,209,2.0,7.0,52,0.00,,CLR,0.00,388.00,VWS V14.00,2013-09-26 21:25:00,
2013-09-26 16:26:00,83.2,63.8,29.81,SSE,161,0.0,7.0,52,0.00,,CLR,0.00,381.00,VWS V14.00,2013-09-26 21:26:00,
2013-09-26 16:27:00,83.1,64.2,29.81,SSW,206,1.0,7.0,53,0.00,,CLR,0.00,380.00,VWS V14.00,2013-09-26 21:27:00,
2013-09-26 16:28:00,83.0,63.0,29.81,ESE,113,4.0,4.0,51,0.00,,CLR,0.00,374.00,VWS V14.00,2013-09-26 21:28:00,
2013-09-26 16:30:00,83.1,63.1,29.81,SE,146,2.0,7.0,51,0.00,,CLR,0.00,374.00,VWS V14.00,2013-09-26 21:30:00,
2013-09-26 16:31:00,82.9,62.9,29.81,SSE,166,2.0,8.0,51,0.00,,CLR,0.00,366.00,VWS V14.00,2013-09-26 21:31:00,
2013-09-26 16:32:00,82.9,63.5,29.81,East,93,4.0,8.0,52,0.00,,CLR,0.00,364.00,VWS V14.00,2013-09-26 21:32:00,
2013-09-26 16:34:00,82.9,64.0,29.81,SE,146,0.0,2.0,53,0.00,,CLR,0.00,360.00,VWS V14.00,2013-09-26 21:34:00,
2013-09-26 16:35:00,82.9,63.5,29.81,SE,133,0.0,8.0,52,0.00,,CLR,0.00,364.00,VWS V14.00,2013-09-26 21:35:00,
2013-09-26 16:36:00,82.8,64.5,29.81,SSE,163,0.0,2.0,54,0.00,,CLR,0.00,352.00,VWS V14.00,2013-09-26 21:36:00,
2013-09-26 16:38:00,82.8,63.9,29.81,South,181,3.0,6.0,53,0.00,,CLR,0.00,350.00,VWS V14.00,2013-09-26 21:38:00,
2013-09-26 16:39:00,82.8,63.9,29.81,SSW,196,2.0,6.0,53,0.00,,CLR,0.00,348.00,VWS V14.00,2013-09-26 21:39:00,
2013-09-26 16:40:00,82.8,63.9,29.81,SSE,159,4.0,6.0,53,0.00,,CLR,0.00,350.00,VWS V14.00,2013-09-26 21:40:00,
2013-09-26 16:41:00,82.8,63.9,29.81,SSE,157,1.0,9.0,53,0.00,,CLR,0.00,339.00,VWS V14.00,2013-09-26 21:41:00,
2013-09-26 16:43:00,82.7,64.4,29.81,SSE,167,0.0,0.0,54,0.00,,CLR,0.00,334.00,VWS V14.00,2013-09-26 21:43:00,
2013-09-26 16:44:00,82.6,64.3,29.81,SE,146,5.0,5.0,54,0.00,,CLR,0.00,332.00,VWS V14.00,2013-09-26 21:44:00,
2013-09-26 16:45:00,82.7,63.8,29.81,SSE,167,0.0,9.0,53,0.00,,CLR,0.00,334.00,VWS V14.00,2013-09-26 21:45:00,
2013-09-26 16:46:00,82.5,63.7,29.81,South,182,4.0,7.0,53,0.00,,CLR,0.00,325.00,VWS V14.00,2013-09-26 21:46:00,
2013-09-26 16:48:00,82.4,63.6,29.81,SSE,165,0.0,2.0,53,0.00,,CLR,0.00,318.00,VWS V14.00,2013-09-26 21:48:00,
2013-09-26 16:49:00,82.4,64.1,29.81,SSW,204,3.0,5.0,54,0.00,,CLR,0.00,315.00,VWS V14.00,2013-09-26 21:49:00,
2013-09-26 16:50:00,82.4,63.6,29.81,SSE,164,2.0,7.0,53,0.00,,CLR,0.00,318.00,VWS V14.00,2013-09-26 21:50:00,
2013-09-26 16:51:00,82.4,63.6,29.81,North,5,3.0,5.0,53,0.00,,CLR,0.00,309.00,VWS V14.00,2013-09-26 21:51:00,
2013-09-26 16:53:00,82.4,63.6,29.81,South,186,1.0,1.0,53,0.00,,CLR,0.00,306.00,VWS V14.00,2013-09-26 21:53:00,
2013-09-26 16:54:00,82.5,64.2,29.81,SE,133,1.0,5.0,54,0.00,,CLR,0.00,302.00,VWS V14.00,2013-09-26 21:54:00,
2013-09-26 16:55:00,82.4,63.6,29.81,South,186,3.0,6.0,53,0.00,,CLR,0.00,306.00,VWS V14.00,2013-09-26 21:55:00,
2013-09-26 16:56:00,82.5,63.7,29.81,South,184,1.0,5.0,53,0.00,,CLR,0.00,292.00,VWS V14.00,2013-09-26 21:56:00,
2013-09-26 16:59:00,82.4,63.6,29.81,SSE,165,0.0,2.0,53,0.00,,CLR,0.00,287.00,VWS V14.00,2013-09-26 21:59:00,
2013-09-26 17:00:00,82.5,63.7,29.81,SSE,161,2.0,5.0,53,0.00,,CLR,0.00,287.00,VWS V14.00,2013-09-26 22:00:00,
2013-09-26 17:01:00,82.3,64.0,29.81,SSE,165,0.0,4.0,54,0.00,,CLR,0.00,276.00,VWS V14.00,2013-09-26 22:01:00,
2013-09-26 17:04:00,82.3,64.0,29.81,South,190,0.0,4.0,54,0.00,,CLR,0.00,272.00,VWS V14.00,2013-09-26 22:04:00,
2013-09-26 17:05:00,82.3,64.0,29.81,SSE,155,1.0,4.0,54,0.00,,CLR,0.00,269.00,VWS V14.00,2013-09-26 22:05:00,
2013-09-26 17:06:00,82.2,63.9,29.81,SE,142,5.0,5.0,54,0.00,,CLR,0.00,262.00,VWS V14.00,2013-09-26 22:06:00,
2013-09-26 17:09:00,82.1,63.8,29.81,South,171,0.0,5.0,54,0.00,,CLR,0.00,257.00,VWS V14.00,2013-09-26 22:09:00,
2013-09-26 17:10:00,82.1,63.8,29.81,South,186,2.0,8.0,54,0.00,,CLR,0.00,255.00,VWS V14.00,2013-09-26 22:10:00,
2013-09-26 17:11:00,82.0,63.7,29.81,SE,142,0.0,8.0,54,0.00,,CLR,0.00,250.00,VWS V14.00,2013-09-26 22:11:00,
2013-09-26 17:14:00,82.0,64.3,29.81,South,182,1.0,3.0,55,0.00,,CLR,0.00,241.00,VWS V14.00,2013-09-26 22:14:00,
2013-09-26 17:15:00,82.1,63.8,29.81,South,172,0.0,3.0,54,0.00,,CLR,0.00,239.00,VWS V14.00,2013-09-26 22:15:00,
2013-09-26 17:16:00,82.1,64.3,29.81,SSE,163,0.0,3.0,55,0.00,,CLR,0.00,232.00,VWS V14.00,2013-09-26 22:16:00,
2013-09-26 17:19:00,82.1,64.9,29.81,South,182,0.0,5.0,56,0.00,,CLR,0.00,223.00,VWS V14.00,2013-09-26 22:19:00,
2013-09-26 17:20:00,82.1,64.3,29.81,South,178,4.0,5.0,55,0.00,,CLR,0.00,223.00,VWS V14.00,2013-09-26 22:20:00,
2013-09-26 17:21:00,82.1,63.8,29.81,WSW,250,2.0,5.0,54,0.00,,CLR,0.00,220.00,VWS V14.00,2013-09-26 22:21:00,
2013-09-26 17:24:00,82.0,64.3,29.81,SSE,156,0.0,3.0,55,0.00,,CLR,0.00,213.00,VWS V14.00,2013-09-26 22:24:00,
2013-09-26 17:25:00,82.0,64.3,29.81,South,176,0.0,5.0,55,0.00,,CLR,0.00,211.00,VWS V14.00,2013-09-26 22:25:00,
2013-09-26 17:26:00,82.0,63.7,29.81,South,178,0.0,5.0,54,0.00,,CLR,0.00,204.00,VWS V14.00,2013-09-26 22:26:00,
2013-09-26 17:29:00,81.9,64.2,29.81,SSE,161,0.0,7.0,55,0.00,,CLR,0.00,197.00,VWS V14.00,2013-09-26 22:29:00,
2013-09-26 17:30:00,81.9,64.2,29.81,SSE,161,0.0,7.0,55,0.00,,CLR,0.00,195.00,VWS V14.00,2013-09-26 22:30:00,
2013-09-26 17:32:00,82.0,64.3,29.81,South,173,0.0,7.0,55,0.00,,CLR,0.00,190.00,VWS V14.00,2013-09-26 22:32:00,
2013-09-26 17:35:00,81.9,64.2,29.81,SSE,151,0.0,4.0,55,0.00,,CLR,0.00,179.00,VWS V14.00,2013-09-26 22:35:00,
2013-09-26 17:37:00,81.8,64.1,29.81,ESE,105,4.0,4.0,55,0.00,,CLR,0.00,176.00,VWS V14.00,2013-09-26 22:37:00,
2013-09-26 17:40:00,81.8,64.1,29.81,SSE,159,0.0,5.0,55,0.00,,CLR,0.00,163.00,VWS V14.00,2013-09-26 22:40:00,
2013-09-26 17:41:00,81.7,64.0,29.81,SE,146,2.0,5.0,55,0.00,,CLR,0.00,160.00,VWS V14.00,2013-09-26 22:41:00,
2013-09-26 17:42:00,81.6,63.9,29.81,SSE,154,0.0,5.0,55,0.00,,CLR,0.00,156.00,VWS V14.00,2013-09-26 22:42:00,
2013-09-26 17:45:00,81.4,63.7,29.81,ENE,63,0.0,2.0,55,0.00,,CLR,0.00,146.00,VWS V14.00,2013-09-26 22:45:00,
2013-09-26 17:46:00,81.3,64.1,29.81,ESE,113,1.0,2.0,56,0.00,,CLR,0.00,146.00,VWS V14.00,2013-09-26 22:46:00,
2013-09-26 17:47:00,81.2,64.0,29.81,SSE,160,0.0,2.0,56,0.00,,CLR,0.00,141.00,VWS V14.00,2013-09-26 22:47:00,
2013-09-26 17:50:00,81.2,63.5,29.82,SSE,160,0.0,4.0,55,0.00,,CLR,0.00,128.00,VWS V14.00,2013-09-26 22:50:00,
2013-09-26 17:51:00,81.2,64.0,29.82,SSE,166,5.0,5.0,56,0.00,,CLR,0.00,128.00,VWS V14.00,2013-09-26 22:51:00,
2013-09-26 17:52:00,81.1,63.4,29.82,South,180,0.0,5.0,55,0.00,,CLR,0.00,123.00,VWS V14.00,2013-09-26 22:52:00,
2013-09-26 17:55:00,80.9,63.2,29.81,SSE,148,1.0,3.0,55,0.00,,CLR,0.00,105.00,VWS V14.00,2013-09-26 22:55:00,
2013-09-26 17:56:00,80.8,63.1,29.81,SSE,149,0.0,3.0,55,0.00,,CLR,0.00,105.00,VWS V14.00,2013-09-26 22:56:00,
2013-09-26 17:57:00,80.8,63.7,29.82,South,174,0.0,3.0,56,0.00,,CLR,0.00,84.00,VWS V14.00,2013-09-26 22:57:00,
2013-09-26 18:00:00,80.7,63.6,29.81,South,180,0.0,3.0,56,0.00,,CLR,0.00,33.00,VWS V14.00,2013-09-26 23:00:00,
2013-09-26 18:01:00,80.4,63.3,29.81,SSE,163,0.0,5.0,56,0.00,,CLR,0.00,30.00,VWS V14.00,2013-09-26 23:01:00,
2013-09-26 18:02:00,80.3,63.7,29.81,SSE,158,0.0,5.0,57,0.00,,CLR,0.00,30.00,VWS V14.00,2013-09-26 23:02:00,
2013-09-26 18:05:00,80.2,63.1,29.81,SSE,159,2.0,5.0,56,0.00,,CLR,0.00,28.00,VWS V14.00,2013-09-26 23:05:00,
2013-09-26 18:06:00,80.0,62.9,29.82,SSE,163,0.0,2.0,56,0.00,,CLR,0.00,28.00,VWS V14.00,2013-09-26 23:06:00,
2013-09-26 18:07:00,79.9,63.3,29.81,SSE,148,0.0,2.0,57,0.00,,CLR,0.00,28.00,VWS V14.00,2013-09-26 23:07:00,
2013-09-26 18:10:00,79.9,63.3,29.81,SSE,148,0.0,2.0,57,0.00,,CLR,0.00,30.00,VWS V14.00,2013-09-26 23:10:00,
2013-09-26 18:11:00,79.7,63.1,29.82,SSE,153,0.0,4.0,57,0.00,,CLR,0.00,26.00,VWS V14.00,2013-09-26 23:11:00,
2013-09-26 18:12:00,79.6,63.0,29.81,South,180,1.0,4.0,57,0.00,,CLR,0.00,26.00,VWS V14.00,2013-09-26 23:12:00,
2013-09-26 18:15:00,79.6,63.0,29.81,South,179,1.0,4.0,57,0.00,,CLR,0.00,25.00,VWS V14.00,2013-09-26 23:15:00,
2013-09-26 18:16:00,79.4,62.9,29.81,SSE,155,0.0,3.0,57,0.00,,CLR,0.00,25.00,VWS V14.00,2013-09-26 23:16:00,
2013-09-26 18:17:00,79.4,62.9,29.81,SSE,150,1.0,3.0,57,0.00,,CLR,0.00,23.00,VWS V14.00,2013-09-26 23:17:00,
2013-09-26 18:20:00,79.3,63.3,29.81,SSE,156,0.0,3.0,58,0.00,,CLR,0.00,25.00,VWS V14.00,2013-09-26 23:20:00,
2013-09-26 18:21:00,79.2,63.2,29.81,SSE,150,0.0,4.0,58,0.00,,CLR,0.00,21.00,VWS V14.00,2013-09-26 23:21:00,
2013-09-26 18:22:00,79.1,63.1,29.81,SSE,148,0.0,4.0,58,0.00,,CLR,0.00,21.00,VWS V14.00,2013-09-26 23:22:00,
2013-09-26 18:25:00,79.1,63.1,29.81,SSE,151,1.0,4.0,58,0.00,,CLR,0.00,21.00,VWS V14.00,2013-09-26 23:25:00,
2013-09-26 18:26:00,78.9,63.4,29.81,SE,136,0.0,5.0,59,0.00,,CLR,0.00,19.00,VWS V14.00,2013-09-26 23:26:00,
2013-09-26 18:27:00,78.8,63.3,29.81,SE,136,0.0,5.0,59,0.00,,CLR,0.00,19.00,VWS V14.00,2013-09-26 23:27:00,
2013-09-26 18:28:00,78.8,63.3,29.81,SE,136,0.0,5.0,59,0.00,,CLR,0.00,19.00,VWS V14.00,2013-09-26 23:28:00,
2013-09-26 18:30:00,78.8,63.3,29.81,SE,137,0.0,5.0,59,0.00,,CLR,0.00,19.00,VWS V14.00,2013-09-26 23:30:00,
2013-09-26 18:31:00,78.6,63.1,29.81,SE,138,0.0,2.0,59,0.00,,CLR,0.00,18.00,VWS V14.00,2013-09-26 23:31:00,
2013-09-26 18:32:00,78.5,63.0,29.81,SE,139,0.0,2.0,59,0.00,,CLR,0.00,18.00,VWS V14.00,2013-09-26 23:32:00,
2013-09-26 18:33:00,78.5,63.0,29.81,SE,139,0.0,2.0,59,0.00,,CLR,0.00,16.00,VWS V14.00,2013-09-26 23:33:00,
2013-09-26 18:35:00,78.5,63.0,29.81,SE,139,1.0,2.0,59,0.00,,CLR,0.00,16.00,VWS V14.00,2013-09-26 23:35:00,
2013-09-26 18:37:00,78.3,62.8,29.81,SSE,158,4.0,4.0,59,0.00,,CLR,0.00,14.00,VWS V14.00,2013-09-26 23:37:00,
2013-09-26 18:38:00,78.3,62.8,29.81,SSE,152,1.0,5.0,59,0.00,,CLR,0.00,14.00,VWS V14.00,2013-09-26 23:38:00,
2013-09-26 18:40:00,78.3,62.8,29.81,SSE,152,1.0,5.0,59,0.00,,CLR,0.00,14.00,VWS V14.00,2013-09-26 23:40:00,
2013-09-26 18:42:00,78.1,62.6,29.81,South,171,0.0,5.0,59,0.00,,CLR,0.00,12.00,VWS V14.00,2013-09-26 23:42:00,
2013-09-26 18:43:00,78.1,62.6,29.81,SSE,158,0.0,5.0,59,0.00,,CLR,0.00,12.00,VWS V14.00,2013-09-26 23:43:00,
2013-09-26 18:45:00,78.1,62.6,29.81,SSE,158,0.0,5.0,59,0.00,,CLR,0.00,11.00,VWS V14.00,2013-09-26 23:45:00,
2013-09-26 18:47:00,77.9,62.4,29.81,SSE,157,0.0,2.0,59,0.00,,CLR,0.00,11.00,VWS V14.00,2013-09-26 23:47:00,
2013-09-26 18:48:00,77.9,62.4,29.81,SSE,158,0.0,2.0,59,0.00,,CLR,0.00,9.00,VWS V14.00,2013-09-26 23:48:00,
2013-09-26 18:50:00,77.9,62.4,29.81,SSE,155,0.0,2.0,59,0.00,,CLR,0.00,9.00,VWS V14.00,2013-09-26 23:50:00,
2013-09-26 18:52:00,77.7,62.2,29.81,SSE,167,1.0,7.0,59,0.00,,CLR,0.00,7.00,VWS V14.00,2013-09-26 23:52:00,
2013-09-26 18:53:00,77.7,62.2,29.81,SSE,168,0.0,0.0,59,0.00,,CLR,0.00,7.00,VWS V14.00,2013-09-26 23:53:00,
2013-09-26 18:55:00,77.7,62.2,29.81,SSE,168,0.0,7.0,59,0.00,,CLR,0.00,7.00,VWS V14.00,2013-09-26 23:55:00,
2013-09-26 18:57:00,77.4,62.4,29.81,SSE,168,0.0,1.0,60,0.00,,CLR,0.00,5.00,VWS V14.00,2013-09-26 23:57:00,
2013-09-26 18:58:00,77.4,62.4,29.81,SSE,168,0.0,1.0,60,0.00,,CLR,0.00,5.00,VWS V14.00,2013-09-26 23:58:00,
2013-09-26 19:00:00,77.4,62.4,29.81,SSE,168,0.0,2.0,60,0.00,,CLR,0.00,5.00,VWS V14.00,2013-09-27 00:00:00,
2013-09-26 19:02:00,77.2,62.2,29.81,SSE,156,0.0,4.0,60,0.00,,CLR,0.00,0.00,VWS V14.00,2013-09-27 00:02:00,
2013-09-26 19:03:00,77.2,62.2,29.81,SSE,155,0.0,4.0,60,0.00,,CLR,0.00,0.00,VWS V14.00,2013-09-27 00:03:00,
2013-09-26 19:04:00,77.2,62.2,29.81,SSE,156,0.0,1.0,60,0.00,,CLR,0.00,0.00,VWS V14.00,2013-09-27 00:04:00,
2013-09-26 19:05:00,77.2,62.2,29.81,SSE,155,0.0,4.0,60,0.00,,CLR,0.00,0.00,VWS V14.00,2013-09-27 00:05:00,
2013-09-26 19:10:00,76.9,62.4,29.81,SSE,157,0.0,0.0,61,0.00,,CLR,0.00,0.00,VWS V14.00,2013-09-27 00:10:00,
2013-09-26 19:15:00,76.6,62.2,29.81,SSE,157,0.0,0.0,61,0.00,,CLR,0.00,0.00,VWS V14.00,2013-09-27 00:15:00,
2013-09-26 19:16:00,76.6,62.2,29.81,SSE,157,0.0,1.0,61,0.00,,CLR,0.00,0.00,VWS V14.00,2013-09-27 00:16:00,
2013-09-26 19:20:00,76.3,62.3,29.81,SSE,157,0.0,1.0,62,0.00,,CLR,0.00,0.00,VWS V14.00,2013-09-27 00:20:00,
2013-09-26 19:21:00,76.2,62.2,29.81,SSE,157,0.0,1.0,62,0.00,,CLR,0.00,0.00,VWS V14.00,2013-09-27 00:21:00,
2013-09-26 19:25:00,76.0,62.0,29.82,SSE,157,0.0,1.0,62,0.00,,CLR,0.00,0.00,VWS V14.00,2013-09-27 00:25:00,
2013-09-26 19:26:00,76.0,62.0,29.81,SSE,157,0.0,1.0,62,0.00,,CLR,0.00,0.00,VWS V14.00,2013-09-27 00:26:00,
2013-09-26 19:27:00,76.0,62.0,29.81,SSE,157,0.0,1.0,62,0.00,,CLR,0.00,0.00,VWS V14.00,2013-09-27 00:27:00,
2013-09-26 19:30:00,75.8,61.9,29.82,SSE,157,0.0,1.0,62,0.00,,CLR,0.00,0.00,VWS V14.00,2013-09-27 00:30:00,
2013-09-26 19:31:00,75.8,61.9,29.82,SSE,157,0.0,1.0,62,0.00,,CLR,0.00,0.00,VWS V14.00,2013-09-27 00:31:00,
2013-09-26 19:32:00,75.8,61.9,29.82,SSE,157,0.0,1.0,62,0.00,,CLR,0.00,0.00,VWS V14.00,2013-09-27 00:32:00,
2013-09-26 19:35:00,75.7,61.8,29.82,SSE,157,0.0,0.0,62,0.00,,CLR,0.00,0.00,VWS V14.00,2013-09-27 00:35:00,
2013-09-26 19:37:00,75.7,61.8,29.82,SSE,156,0.0,0.0,62,0.00,,CLR,0.00,0.00,VWS V14.00,2013-09-27 00:37:00,
2013-09-26 19:40:00,75.5,61.6,29.82,SSE,157,0.0,0.0,62,0.00,,CLR,0.00,0.00,VWS V14.00,2013-09-27 00:40:00,
2013-09-26 19:42:00,75.4,61.9,29.82,SSE,157,0.0,1.0,63,0.00,,CLR,0.00,0.00,VWS V14.00,2013-09-27 00:42:00,
2013-09-26 19:43:00,75.4,61.9,29.82,SSE,157,0.0,1.0,63,0.00,,CLR,0.00,0.00,VWS V14.00,2013-09-27 00:43:00,
2013-09-26 19:45:00,75.2,61.8,29.82,SSE,157,0.0,0.0,63,0.00,,CLR,0.00,0.00,VWS V14.00,2013-09-27 00:45:00,
2013-09-26 19:47:00,75.1,61.7,29.82,SSE,157,0.0,1.0,63,0.00,,CLR,0.00,0.00,VWS V14.00,2013-09-27 00:47:00,
2013-09-26 19:48:00,75.0,61.6,29.82,SSE,157,0.0,1.0,63,0.00,,CLR,0.00,0.00,VWS V14.00,2013-09-27 00:48:00,
2013-09-26 19:50:00,75.0,61.6,29.82,SSE,157,0.0,1.0,63,0.00,,CLR,0.00,0.00,VWS V14.00,2013-09-27 00:50:00,
2013-09-26 19:51:00,74.9,61.9,29.82,SSE,157,0.0,1.0,64,0.00,,CLR,0.00,0.00,VWS V14.00,2013-09-27 00:51:00,
2013-09-26 19:52:00,74.8,61.8,29.82,SSE,157,0.0,1.0,64,0.00,,CLR,0.00,0.00,VWS V14.00,2013-09-27 00:52:00,
2013-09-26 19:53:00,74.8,61.8,29.82,SSE,157,0.0,1.0,64,0.00,,CLR,0.00,0.00,VWS V14.00,2013-09-27 00:53:00,
2013-09-26 19:55:00,74.8,61.8,29.82,SSE,157,0.0,1.0,64,0.00,,CLR,0.00,0.00,VWS V14.00,2013-09-27 00:55:00,
2013-09-26 19:56:00,74.5,62.0,29.82,SSE,157,0.0,0.0,65,0.00,,CLR,0.00,0.00,VWS V14.00,2013-09-27 00:56:00,
2013-09-26 19:57:00,74.4,61.9,29.82,SSE,157,0.0,0.0,65,0.00,,CLR,0.00,0.00,VWS V14.00,2013-09-27 00:57:00,
2013-09-26 19:58:00,74.4,61.9,29.82,SSE,157,0.0,0.0,65,0.00,,CLR,0.00,0.00,VWS V14.00,2013-09-27 00:58:00,
2013-09-26 20:00:00,74.4,61.9,29.82,SSE,157,0.0,0.0,65,0.00,,CLR,0.00,0.00,VWS V14.00,2013-09-27 01:00:00,
2013-09-26 20:01:00,74.2,62.1,29.82,SSE,157,0.0,1.0,66,0.00,,CLR,0.00,0.00,VWS V14.00,2013-09-27 01:01:00,
2013-09-26 20:03:00,74.0,61.9,29.83,SSE,157,0.0,1.0,66,0.00,,CLR,0.00,0.00,VWS V14.00,2013-09-27 01:03:00,
2013-09-26 20:04:00,73.9,62.3,29.83,SSE,157,0.0,0.0,67,0.00,,CLR,0.00,0.00,VWS V14.00,2013-09-27 01:04:00,
2013-09-26 20:05:00,74.0,61.9,29.83,SSE,157,0.0,1.0,66,0.00,,CLR,0.00,0.00,VWS V14.00,2013-09-27 01:05:00,
2013-09-26 20:06:00,73.8,62.2,29.83,SSE,157,0.0,1.0,67,0.00,,CLR,0.00,0.00,VWS V14.00,2013-09-27 01:06:00,
2013-09-26 20:08:00,73.7,62.1,29.83,SSE,157,0.0,0.0,67,0.00,,CLR,0.00,0.00,VWS V14.00,2013-09-27 01:08:00,
2013-09-26 20:10:00,73.5,61.9,29.83,SSE,157,0.0,0.0,67,0.00,,CLR,0.00,0.00,VWS V14.00,2013-09-27 01:10:00,
2013-09-26 20:12:00,73.5,62.3,29.83,SSE,157,0.0,1.0,68,0.00,,CLR,0.00,0.00,VWS V14.00,2013-09-27 01:12:00,
2013-09-26 20:13:00,73.4,62.2,29.83,SSE,157,0.0,0.0,68,0.00,,CLR,0.00,0.00,VWS V14.00,2013-09-27 01:13:00,
2013-09-26 20:15:00,73.3,62.1,29.83,SSE,157,0.0,1.0,68,0.00,,CLR,0.00,0.00,VWS V14.00,2013-09-27 01:15:00,
2013-09-26 20:17:00,73.2,62.0,29.83,SSE,157,0.0,1.0,68,0.00,,CLR,0.00,0.00,VWS V14.00,2013-09-27 01:17:00,
2013-09-26 20:19:00,73.2,62.0,29.83,SSE,157,0.0,1.0,68,0.00,,CLR,0.00,0.00,VWS V14.00,2013-09-27 01:19:00,
2013-09-26 20:20:00,73.1,62.3,29.83,SSE,157,0.0,1.0,69,0.00,,CLR,0.00,0.00,VWS V14.00,2013-09-27 01:20:00,
2013-09-26 20:22:00,73.0,62.2,29.83,SSE,157,0.0,1.0,69,0.00,,CLR,0.00,0.00,VWS V14.00,2013-09-27 01:22:00,
2013-09-26 20:24:00,73.0,62.2,29.83,SSE,157,0.0,0.0,69,0.00,,CLR,0.00,0.00,VWS V14.00,2013-09-27 01:24:00,
2013-09-26 20:25:00,73.0,62.2,29.83,SSE,157,0.0,1.0,69,0.00,,OVC043,0.00,0.00,VWS V14.00,2013-09-27 01:25:00,
2013-09-26 20:26:00,72.9,62.1,29.83,SSE,157,0.0,0.0,69,0.00,,CLR,0.00,0.00,VWS V14.00,2013-09-27 01:26:00,
2013-09-26 20:27:00,72.9,62.1,29.83,SSE,157,0.0,0.0,69,0.00,,CLR,0.00,0.00,VWS V14.00,2013-09-27 01:27:00,
2013-09-26 20:29:00,72.8,62.0,29.83,SSE,157,0.0,0.0,69,0.00,,CLR,0.00,0.00,VWS V14.00,2013-09-27 01:29:00,
2013-09-26 20:30:00,72.8,62.0,29.83,SSE,157,0.0,1.0,69,0.00,,CLR,0.00,0.00,VWS V14.00,2013-09-27 01:30:00,
2013-09-26 20:32:00,72.7,62.0,29.83,SSE,157,0.0,0.0,69,0.00,,CLR,0.00,0.00,VWS V14.00,2013-09-27 01:32:00,
2013-09-26 20:34:00,72.7,62.0,29.83,SSE,157,0.0,0.0,69,0.00,,CLR,0.00,0.00,VWS V14.00,2013-09-27 01:34:00,
2013-09-26 20:35:00,72.7,62.0,29.83,SSE,157,0.0,0.0,69,0.00,,CLR,0.00,0.00,VWS V14.00,2013-09-27 01:35:00,
2013-09-26 20:37:00,72.6,62.3,29.84,SSE,157,0.0,1.0,70,0.00,,CLR,0.00,0.00,VWS V14.00,2013-09-27 01:37:00,
2013-09-26 20:39:00,72.6,62.3,29.84,SSE,157,0.0,0.0,70,0.00,,CLR,0.00,0.00,VWS V14.00,2013-09-27 01:39:00,
2013-09-26 20:40:00,72.6,62.3,29.84,SSE,157,0.0,1.0,70,0.00,,CLR,0.00,0.00,VWS V14.00,2013-09-27 01:40:00,
2013-09-26 20:42:00,72.5,62.2,29.84,SSE,157,0.0,0.0,70,0.00,,CLR,0.00,0.00,VWS V14.00,2013-09-27 01:42:00,
2013-09-26 20:44:00,72.5,62.2,29.84,SSE,157,0.0,0.0,70,0.00,,CLR,0.00,0.00,VWS V14.00,2013-09-27 01:44:00,
2013-09-26 20:45:00,72.5,62.2,29.84,SSE,157,0.0,0.0,70,0.00,,CLR,0.00,0.00,VWS V14.00,2013-09-27 01:45:00,
2013-09-26 20:47:00,72.4,62.1,29.84,SSE,157,0.0,1.0,70,0.00,,CLR,0.00,0.00,VWS V14.00,2013-09-27 01:47:00,
2013-09-26 20:48:00,72.5,62.2,29.84,SSE,157,0.0,1.0,70,0.00,,CLR,0.00,0.00,VWS V14.00,2013-09-27 01:48:00,
2013-09-26 20:49:00,72.4,62.1,29.84,SSE,157,0.0,0.0,70,0.00,,CLR,0.00,0.00,VWS V14.00,2013-09-27 01:49:00,
2013-09-26 20:50:00,72.4,62.1,29.84,SSE,157,0.0,0.0,70,0.00,,CLR,0.00,0.00,VWS V14.00,2013-09-27 01:50:00,
2013-09-26 20:52:00,72.4,62.1,29.84,SSE,157,0.0,1.0,70,0.00,,CLR,0.00,0.00,VWS V14.00,2013-09-27 01:52:00,
2013-09-26 20:53:00,72.4,62.1,29.84,SSE,157,0.0,1.0,70,0.00,,CLR,0.00,0.00,VWS V14.00,2013-09-27 01:53:00,
2013-09-26 20:54:00,72.3,62.0,29.84,SSE,157,0.0,0.0,70,0.00,,CLR,0.00,0.00,VWS V14.00,2013-09-27 01:54:00,
2013-09-26 20:55:00,72.3,62.0,29.84,SSE,157,0.0,0.0,70,0.00,,CLR,0.00,0.00,VWS V14.00,2013-09-27 01:55:00,
2013-09-26 20:57:00,72.2,61.9,29.84,SSE,157,0.0,1.0,70,0.00,,CLR,0.00,0.00,VWS V14.00,2013-09-27 01:57:00,
2013-09-26 20:58:00,72.2,61.9,29.84,SSE,157,0.0,1.0,70,0.00,,CLR,0.00,0.00,VWS V14.00,2013-09-27 01:58:00,
2013-09-26 21:00:00,72.2,62.3,29.84,SSE,156,0.0,0.0,71,0.00,,CLR,0.00,0.00,VWS V14.00,2013-09-27 02:00:00,
2013-09-26 21:02:00,72.2,62.3,29.85,SSE,157,0.0,1.0,71,0.00,,CLR,0.00,0.00,VWS V14.00,2013-09-27 02:02:00,
2013-09-26 21:03:00,72.1,62.2,29.85,SSE,157,0.0,1.0,71,0.00,,CLR,0.00,0.00,VWS V14.00,2013-09-27 02:03:00,
2013-09-26 21:05:00,72.1,61.8,29.85,SSE,157,0.0,1.0,70,0.00,,CLR,0.00,0.00,VWS V14.00,2013-09-27 02:05:00,
2013-09-26 21:08:00,72.1,61.8,29.85,SSE,157,0.0,1.0,70,0.00,,CLR,0.00,0.00,VWS V14.00,2013-09-27 02:08:00,
2013-09-26 21:10:00,72.1,61.8,29.85,SSE,157,0.0,0.0,70,0.00,,CLR,0.00,0.00,VWS V14.00,2013-09-27 02:10:00,
2013-09-26 21:11:00,72.1,61.8,29.85,SSE,157,0.0,0.0,70,0.00,,CLR,0.00,0.00,VWS V14.00,2013-09-27 02:11:00,
2013-09-26 21:13:00,72.1,61.8,29.85,SSE,157,0.0,0.0,70,0.00,,CLR,0.00,0.00,VWS V14.00,2013-09-27 02:13:00,
2013-09-26 21:14:00,72.1,61.8,29.85,SSE,157,0.0,0.0,70,0.00,,CLR,0.00,0.00,VWS V14.00,2013-09-27 02:14:00,
2013-09-26 21:15:00,72.1,61.8,29.85,SSE,157,0.0,0.0,70,0.00,,CLR,0.00,0.00,VWS V14.00,2013-09-27 02:15:00,
2013-09-26 21:16:00,72.1,61.8,29.85,SSE,157,0.0,1.0,70,0.00,,CLR,0.00,0.00,VWS V14.00,2013-09-27 02:16:00,
2013-09-26 21:18:00,72.1,61.8,29.85,SSE,157,0.0,1.0,70,0.00,,CLR,0.00,0.00,VWS V14.00,2013-09-27 02:18:00,
2013-09-26 21:19:00,72.1,61.8,29.85,SSE,157,0.0,0.0,70,0.00,,CLR,0.00,0.00,VWS V14.00,2013-09-27 02:19:00,
2013-09-26 21:20:00,72.1,61.8,29.85,SSE,157,0.0,0.0,70,0.00,,CLR,0.00,0.00,VWS V14.00,2013-09-27 02:20:00,
2013-09-26 21:21:00,72.1,61.8,29.85,SSE,157,0.0,0.0,70,0.00,,CLR,0.00,0.00,VWS V14.00,2013-09-27 02:21:00,
2013-09-26 21:23:00,72.1,61.8,29.85,SSE,157,0.0,0.0,70,0.00,,CLR,0.00,0.00,VWS V14.00,2013-09-27 02:23:00,
2013-09-26 21:24:00,72.2,61.9,29.85,SSE,157,0.0,1.0,70,0.00,,CLR,0.00,0.00,VWS V14.00,2013-09-27 02:24:00,
2013-09-26 21:25:00,72.2,61.9,29.85,SSE,157,0.0,1.0,70,0.00,,CLR,0.00,0.00,VWS V14.00,2013-09-27 02:25:00,
2013-09-26 21:27:00,72.2,61.9,29.85,SSE,157,0.0,1.0,70,0.00,,CLR,0.00,0.00,VWS V14.00,2013-09-27 02:27:00,
2013-09-26 21:28:00,72.2,61.9,29.85,SSE,157,0.0,1.0,70,0.00,,CLR,0.00,0.00,VWS V14.00,2013-09-27 02:28:00,
2013-09-26 21:30:00,72.3,62.0,29.85,SSE,157,0.0,1.0,70,0.00,,CLR,0.00,0.00,VWS V14.00,2013-09-27 02:30:00,
2013-09-26 21:32:00,72.3,62.0,29.85,SSE,157,0.0,1.0,70,0.00,,CLR,0.00,0.00,VWS V14.00,2013-09-27 02:32:00,
2013-09-26 21:33:00,72.3,62.0,29.85,SSE,157,0.0,0.0,70,0.00,,CLR,0.00,0.00,VWS V14.00,2013-09-27 02:33:00,
2013-09-26 21:35:00,72.3,62.0,29.85,SSE,157,0.0,1.0,70,0.00,,CLR,0.00,0.00,VWS V14.00,2013-09-27 02:35:00,
2013-09-26 21:36:00,72.2,61.9,29.85,SSE,157,0.0,1.0,70,0.00,,CLR,0.00,0.00,VWS V14.00,2013-09-27 02:36:00,
2013-09-26 21:37:00,72.2,61.9,29.85,SSE,157,0.0,1.0,70,0.00,,CLR,0.00,0.00,VWS V14.00,2013-09-27 02:37:00,
2013-09-26 21:38:00,72.2,61.9,29.85,SSE,157,0.0,1.0,70,0.00,,CLR,0.00,0.00,VWS V14.00,2013-09-27 02:38:00,
2013-09-26 21:40:00,72.2,61.9,29.85,SSE,157,0.0,1.0,70,0.00,,CLR,0.00,0.00,VWS V14.00,2013-09-27 02:40:00,
2013-09-26 21:41:00,72.2,61.9,29.85,SSE,157,0.0,1.0,70,0.00,,CLR,0.00,0.00,VWS V14.00,2013-09-27 02:41:00,
2013-09-26 21:42:00,72.1,61.8,29.85,SSE,157,0.0,1.0,70,0.00,,CLR,0.00,0.00,VWS V14.00,2013-09-27 02:42:00,
2013-09-26 21:43:00,72.1,61.8,29.85,SSE,157,0.0,0.0,70,0.00,,CLR,0.00,0.00,VWS V14.00,2013-09-27 02:43:00,
2013-09-26 21:45:00,72.1,61.8,29.85,SSE,152,0.0,1.0,70,0.00,,CLR,0.00,0.00,VWS V14.00,2013-09-27 02:45:00,
2013-09-26 21:46:00,72.0,61.7,29.85,SSE,152,0.0,1.0,70,0.00,,CLR,0.00,0.00,VWS V14.00,2013-09-27 02:46:00,
2013-09-26 21:47:00,72.0,61.7,29.85,SSE,152,0.0,1.0,70,0.00,,CLR,0.00,0.00,VWS V14.00,2013-09-27 02:47:00,
2013-09-26 21:48:00,72.0,62.1,29.85,SSE,152,0.0,0.0,71,0.00,,CLR,0.00,0.00,VWS V14.00,2013-09-27 02:48:00,
2013-09-26 21:50:00,72.0,62.1,29.85,SSE,152,0.0,1.0,71,0.00,,CLR,0.00,0.00,VWS V14.00,2013-09-27 02:50:00,
2013-09-26 21:51:00,71.9,62.0,29.86,SSE,152,0.0,0.0,71,0.00,,CLR,0.00,0.00,VWS V14.00,2013-09-27 02:51:00,
2013-09-26 21:52:00,71.8,61.9,29.86,SSE,152,0.0,1.0,71,0.00,,CLR,0.00,0.00,VWS V14.00,2013-09-27 02:52:00,
2013-09-26 21:53:00,71.8,61.9,29.86,SSE,152,0.0,0.0,71,0.00,,CLR,0.00,0.00,VWS V14.00,2013-09-27 02:53:00,
2013-09-26 21:55:00,71.8,61.9,29.86,SSE,152,0.0,1.0,71,0.00,,CLR,0.00,0.00,VWS V14.00,2013-09-27 02:55:00,
2013-09-26 21:56:00,71.7,62.2,29.86,SSE,152,0.0,0.0,72,0.00,,CLR,0.00,0.00,VWS V14.00,2013-09-27 02:56:00,
2013-09-26 21:58:00,71.6,62.1,29.86,SE,129,0.0,0.0,72,0.00,,CLR,0.00,0.00,VWS V14.00,2013-09-27 02:58:00,
2013-09-26 22:00:00,71.6,62.1,29.86,SE,129,0.0,1.0,72,0.00,,CLR,0.00,0.00,VWS V14.00,2013-09-27 03:00:00,
2013-09-26 22:01:00,71.5,62.0,29.86,SE,128,0.0,1.0,72,0.00,,CLR,0.00,0.00,VWS V14.00,2013-09-27 03:01:00,
2013-09-26 22:02:00,71.5,62.0,29.86,SE,129,1.0,1.0,72,0.00,,CLR,0.00,0.00,VWS V14.00,2013-09-27 03:02:00,
2013-09-26 22:03:00,71.4,61.9,29.86,SE,128,0.0,0.0,72,0.00,,CLR,0.00,0.00,VWS V14.00,2013-09-27 03:03:00,
2013-09-26 22:04:00,71.4,61.9,29.86,SE,129,0.0,0.0,72,0.00,,CLR,0.00,0.00,VWS V14.00,2013-09-27 03:04:00,
2013-09-26 22:05:00,71.4,61.9,29.86,SE,128,0.0,1.0,72,0.00,,CLR,0.00,0.00,VWS V14.00,2013-09-27 03:05:00,
2013-09-26 22:06:00,71.3,61.8,29.86,SE,128,0.0,1.0,72,0.00,,CLR,0.00,0.00,VWS V14.00,2013-09-27 03:06:00,
2013-09-26 22:07:00,71.2,61.7,29.86,SE,128,0.0,1.0,72,0.00,,CLR,0.00,0.00,VWS V14.00,2013-09-27 03:07:00,
2013-09-26 22:08:00,71.2,61.7,29.86,SE,128,1.0,1.0,72,0.00,,CLR,0.00,0.00,VWS V14.00,2013-09-27 03:08:00,
2013-09-26 22:09:00,71.2,62.1,29.86,SE,128,0.0,1.0,73,0.00,,CLR,0.00,0.00,VWS V14.00,2013-09-27 03:09:00,
2013-09-26 22:10:00,71.2,61.7,29.86,SE,129,0.0,1.0,72,0.00,,CLR,0.00,0.00,VWS V14.00,2013-09-27 03:10:00,
2013-09-26 22:12:00,71.1,62.0,29.86,SE,131,0.0,1.0,73,0.00,,CLR,0.00,0.00,VWS V14.00,2013-09-27 03:12:00,
2013-09-26 22:14:00,71.1,62.0,29.86,SE,131,0.0,0.0,73,0.00,,CLR,0.00,0.00,VWS V14.00,2013-09-27 03:14:00,
2013-09-26 22:15:00,71.1,62.0,29.86,SE,131,0.0,1.0,73,0.00,,CLR,0.00,0.00,VWS V14.00,2013-09-27 03:15:00,
2013-09-26 22:18:00,71.0,61.9,29.86,SE,131,0.0,2.0,73,0.00,,CLR,0.00,0.00,VWS V14.00,2013-09-27 03:18:00,
2013-09-26 22:19:00,71.0,61.9,29.86,SE,131,0.0,0.0,73,0.00,,CLR,0.00,0.00,VWS V14.00,2013-09-27 03:19:00,
2013-09-26 22:20:00,71.0,61.9,29.86,SE,131,0.0,1.0,73,0.00,,CLR,0.00,0.00,VWS V14.00,2013-09-27 03:20:00,
2013-09-26 22:23:00,71.1,62.0,29.86,SE,131,0.0,1.0,73,0.00,,CLR,0.00,0.00,VWS V14.00,2013-09-27 03:23:00,
2013-09-26 22:24:00,71.1,62.0,29.86,SE,136,0.0,2.0,73,0.00,,CLR,0.00,0.00,VWS V14.00,2013-09-27 03:24:00,
2013-09-26 22:25:00,71.1,62.0,29.86,SE,136,0.0,2.0,73,0.00,,CLR,0.00,0.00,VWS V14.00,2013-09-27 03:25:00,
2013-09-26 22:28:00,71.2,62.1,29.86,SE,136,0.0,2.0,73,0.00,,CLR,0.00,0.00,VWS V14.00,2013-09-27 03:28:00,
2013-09-26 22:29:00,71.2,62.1,29.86,SE,137,0.0,1.0,73,0.00,,CLR,0.00,0.00,VWS V14.00,2013-09-27 03:29:00,
2013-09-26 22:30:00,71.2,62.1,29.86,SE,137,0.0,1.0,73,0.00,,CLR,0.00,0.00,VWS V14.00,2013-09-27 03:30:00,
2013-09-26 22:33:00,71.3,62.2,29.87,SE,136,0.0,2.0,73,0.00,,CLR,0.00,0.00,VWS V14.00,2013-09-27 03:33:00,
2013-09-26 22:34:00,71.3,62.2,29.87,SE,137,0.0,0.0,73,0.00,,CLR,0.00,0.00,VWS V14.00,2013-09-27 03:34:00,
2013-09-26 22:35:00,71.3,62.2,29.87,SE,137,0.0,1.0,73,0.00,,CLR,0.00,0.00,VWS V14.00,2013-09-27 03:35:00,
2013-09-26 22:38:00,71.3,61.8,29.87,SE,143,0.0,2.0,72,0.00,,CLR,0.00,0.00,VWS V14.00,2013-09-27 03:38:00,
2013-09-26 22:39:00,71.3,62.2,29.87,SE,143,0.0,0.0,73,0.00,,CLR,0.00,0.00,VWS V14.00,2013-09-27 03:39:00,
2013-09-26 22:40:00,71.3,62.2,29.87,SE,145,0.0,1.0,73,0.00,,CLR,0.00,0.00,VWS V14.00,2013-09-27 03:40:00,
2013-09-26 22:43:00,71.4,61.9,29.87,South,173,1.0,1.0,72,0.00,,CLR,0.00,0.00,VWS V14.00,2013-09-27 03:43:00,
2013-09-26 22:44:00,71.4,62.3,29.87,South,173,0.0,1.0,73,0.00,,CLR,0.00,0.00,VWS V14.00,2013-09-27 03:44:00,
2013-09-26 22:45:00,71.4,61.9,29.87,South,173,0.0,2.0,72,0.00,,CLR,0.00,0.00,VWS V14.00,2013-09-27 03:45:00,
2013-09-26 22:46:00,71.4,62.3,29.87,South,173,0.0,1.0,73,0.00,,CLR,0.00,0.00,VWS V14.00,2013-09-27 03:46:00,
2013-09-26 22:48:00,71.4,62.3,29.87,South,173,0.0,0.0,73,0.00,,CLR,0.00,0.00,VWS V14.00,2013-09-27 03:48:00,
2013-09-26 22:49:00,71.4,62.3,29.87,South,173,0.0,1.0,73,0.00,,CLR,0.00,0.00,VWS V14.00,2013-09-27 03:49:00,
2013-09-26 22:50:00,71.4,62.3,29.87,South,173,0.0,1.0,73,0.00,,CLR,0.00,0.00,VWS V14.00,2013-09-27 03:50:00,
2013-09-26 22:51:00,71.4,62.3,29.87,South,173,0.0,1.0,73,0.00,,CLR,0.00,0.00,VWS V14.00,2013-09-27 03:51:00,
2013-09-26 22:53:00,71.3,62.2,29.87,South,171,0.0,0.0,73,0.00,,CLR,0.00,0.00,VWS V14.00,2013-09-27 03:53:00,
2013-09-26 22:54:00,71.3,62.2,29.87,South,171,0.0,0.0,73,0.00,,CLR,0.00,0.00,VWS V14.00,2013-09-27 03:54:00,
2013-09-26 22:55:00,71.3,62.2,29.87,South,171,0.0,1.0,73,0.00,,CLR,0.00,0.00,VWS V14.00,2013-09-27 03:55:00,
2013-09-26 22:56:00,71.3,62.2,29.87,South,175,4.0,4.0,73,0.00,,CLR,0.00,0.00,VWS V14.00,2013-09-27 03:56:00,
2013-09-26 22:59:00,71.2,62.1,29.87,South,175,0.0,0.0,73,0.00,,CLR,0.00,0.00,VWS V14.00,2013-09-27 03:59:00,
2013-09-26 23:00:00,71.2,62.1,29.87,South,175,0.0,4.0,73,0.00,,CLR,0.00,0.00,VWS V14.00,2013-09-27 04:00:00,
2013-09-26 23:01:00,71.2,62.1,29.87,South,175,0.0,1.0,73,0.00,,CLR,0.00,0.00,VWS V14.00,2013-09-27 04:01:00,
2013-09-26 23:02:00,71.2,62.1,29.87,South,175,0.0,1.0,73,0.00,,CLR,0.00,0.00,VWS V14.00,2013-09-27 04:02:00,
2013-09-26 23:05:00,71.2,62.1,29.87,South,175,0.0,1.0,73,0.00,,CLR,0.00,0.00,VWS V14.00,2013-09-27 04:05:00,
2013-09-26 23:06:00,71.1,62.0,29.87,South,175,0.0,1.0,73,0.00,,CLR,0.00,0.00,VWS V14.00,2013-09-27 04:06:00,
2013-09-26 23:07:00,71.0,61.9,29.87,South,175,0.0,1.0,73,0.00,,CLR,0.00,0.00,VWS V14.00,2013-09-27 04:07:00,
2013-09-26 23:08:00,71.0,61.9,29.87,South,175,0.0,1.0,73,0.00,,CLR,0.00,0.00,VWS V14.00,2013-09-27 04:08:00,
2013-09-26 23:10:00,71.0,61.9,29.87,South,175,0.0,1.0,73,0.00,,OVC043,0.00,0.00,VWS V14.00,2013-09-27 04:10:00,
2013-09-26 23:11:00,70.9,62.2,29.87,South,175,0.0,1.0,74,0.00,,CLR,0.00,0.00,VWS V14.00,2013-09-27 04:11:00,
2013-09-26 23:12:00,70.9,62.2,29.88,South,175,0.0,1.0,74,0.00,,CLR,0.00,0.00,VWS V14.00,2013-09-27 04:12:00,
2013-09-26 23:13:00,70.8,62.1,29.88,South,175,0.0,1.0,74,0.00,,CLR,0.00,0.00,VWS V14.00,2013-09-27 04:13:00,
2013-09-26 23:15:00,70.8,62.1,29.88,South,175,0.0,1.0,74,0.00,,CLR,0.00,0.00,VWS V14.00,2013-09-27 04:15:00,
2013-09-26 23:16:00,70.8,62.1,29.88,SSE,162,0.0,1.0,74,0.00,,CLR,0.00,0.00,VWS V14.00,2013-09-27 04:16:00,
2013-09-26 23:17:00,70.7,62.0,29.88,SSE,162,0.0,1.0,74,0.00,,CLR,0.00,0.00,VWS V14.00,2013-09-27 04:17:00,
2013-09-26 23:18:00,70.7,62.0,29.88,SW,222,0.0,2.0,74,0.00,,CLR,0.00,0.00,VWS V14.00,2013-09-27 04:18:00,
2013-09-26 23:19:00,70.7,62.0,29.88,SW,217,0.0,2.0,74,0.00,,CLR,0.00,0.00,VWS V14.00,2013-09-27 04:19:00,
2013-09-26 23:20:00,70.7,62.0,29.88,SW,223,1.0,4.0,74,0.00,,CLR,0.00,0.00,VWS V14.00,2013-09-27 04:20:00,
2013-09-26 23:21:00,70.7,62.0,29.88,South,174,0.0,2.0,74,0.00,,CLR,0.00,0.00,VWS V14.00,2013-09-27 04:21:00,
2013-09-26 23:22:00,70.7,62.0,29.88,South,173,0.0,2.0,74,0.00,,CLR,0.00,0.00,VWS V14.00,2013-09-27 04:22:00,
2013-09-26 23:23:00,70.6,61.9,29.88,South,174,0.0,1.0,74,0.00,,CLR,0.00,0.00,VWS V14.00,2013-09-27 04:23:00,
2013-09-26 23:24:00,70.6,61.9,29.88,South,174,0.0,1.0,74,0.00,,CLR,0.00,0.00,VWS V14.00,2013-09-27 04:24:00,
2013-09-26 23:25:00,70.6,61.9,29.88,South,174,1.0,2.0,74,0.00,,CLR,0.00,0.00,VWS V14.00,2013-09-27 04:25:00,
2013-09-26 23:26:00,70.6,62.3,29.88,South,174,0.0,1.0,75,0.00,,CLR,0.00,0.00,VWS V14.00,2013-09-27 04:26:00,
2013-09-26 23:27:00,70.6,62.3,29.88,South,174,0.0,1.0,75,0.00,,CLR,0.00,0.00,VWS V14.00,2013-09-27 04:27:00,
2013-09-26 23:29:00,70.6,61.9,29.88,South,174,1.0,1.0,74,0.00,,CLR,0.00,0.00,VWS V14.00,2013-09-27 04:29:00,
2013-09-26 23:30:00,70.6,61.9,29.88,South,174,0.0,1.0,74,0.00,,CLR,0.00,0.00,VWS V14.00,2013-09-27 04:30:00,
2013-09-26 23:32:00,70.6,62.3,29.88,South,173,0.0,2.0,75,0.00,,CLR,0.00,0.00,VWS V14.00,2013-09-27 04:32:00,
2013-09-26 23:34:00,70.6,62.3,29.88,South,173,0.0,1.0,75,0.00,,CLR,0.00,0.00,VWS V14.00,2013-09-27 04:34:00,
2013-09-26 23:35:00,70.6,61.9,29.88,South,173,1.0,2.0,74,0.00,,CLR,0.00,0.00,VWS V14.00,2013-09-27 04:35:00,
2013-09-26 23:37:00,70.6,62.3,29.88,South,173,0.0,1.0,75,0.00,,CLR,0.00,0.00,VWS V14.00,2013-09-27 04:37:00,
2013-09-26 23:39:00,70.7,62.4,29.89,South,176,0.0,2.0,75,0.00,,CLR,0.00,0.00,VWS V14.00,2013-09-27 04:39:00,
2013-09-26 23:40:00,70.6,62.3,29.88,South,173,0.0,1.0,75,0.00,,CLR,0.00,0.00,VWS V14.00,2013-09-27 04:40:00,
2013-09-26 23:42:00,70.7,62.4,29.89,South,176,0.0,2.0,75,0.00,,CLR,0.00,0.00,VWS V14.00,2013-09-27 04:42:00,
2013-09-26 23:43:00,70.7,62.4,29.88,South,176,0.0,2.0,75,0.00,,CLR,0.00,0.00,VWS V14.00,2013-09-27 04:43:00,
2013-09-26 23:44:00,70.7,62.4,29.89,South,177,0.0,2.0,75,0.00,,CLR,0.00,0.00,VWS V14.00,2013-09-27 04:44:00,
2013-09-26 23:45:00,70.7,62.4,29.88,South,176,2.0,2.0,75,0.00,,CLR,0.00,0.00,VWS V14.00,2013-09-27 04:45:00,
2013-09-26 23:47:00,70.7,62.4,29.89,SSW,194,0.0,2.0,75,0.00,,CLR,0.00,0.00,VWS V14.00,2013-09-27 04:47:00,
2013-09-26 23:48:00,70.7,62.4,29.89,SSW,194,0.0,2.0,75,0.00,,CLR,0.00,0.00,VWS V14.00,2013-09-27 04:48:00,
2013-09-26 23:49:00,70.7,62.4,29.89,SSW,194,0.0,2.0,75,0.00,,CLR,0.00,0.00,VWS V14.00,2013-09-27 04:49:00,
2013-09-26 23:50:00,70.7,62.4,29.89,SSW,194,0.0,2.0,75,0.00,,CLR,0.00,0.00,VWS V14.00,2013-09-27 04:50:00,
2013-09-26 23:52:00,70.7,62.4,29.89,SSW,194,1.0,2.0,75,0.00,,CLR,0.00,0.00,VWS V14.00,2013-09-27 04:52:00,
2013-09-26 23:53:00,70.7,62.4,29.89,SSW,194,0.0,2.0,75,0.00,,CLR,0.00,0.00,VWS V14.00,2013-09-27 04:53:00,
2013-09-26 23:55:00,70.6,62.3,29.89,SSW,194,1.0,1.0,75,0.00,,CLR,0.00,0.00,VWS V14.00,2013-09-27 04:55:00,
2013-09-26 23:57:00,70.5,62.2,29.89,SSW,194,0.0,1.0,75,0.00,,CLR,0.00,0.00,VWS V14.00,2013-09-27 04:57:00,
2013-09-26 23:58:00,70.4,62.1,29.89,SSW,194,0.0,1.0,75,0.00,,CLR,0.00,0.00,VWS V14.00,2013-09-27 04:58:00,